Wetterdaten: Mittwoch, 12.08.2009
Datum Zeit Temp. Innen Temp. Aussen UV X Diff Temp. Feuchte Inne Feuchte Auss Sonnenschein Luftdruck Regen ab 0,1 Wind Sonnenschein Windben
12.08.2009 00:02 24,1 C 17,2 C 0,0 UV-I 0,0 C 61 % 83 % 0 % 1021,5 hPa 0,0 l/m 0,0 km/h (0 Bft) 0 min 0,0 km/h (0 Bft)
12.08.2009 00:04 24,0 C 17,2 C 0,0 UV-I 0,0 C 61 % 83 % 0 % 1021,5 hPa 0,0 l/m 0,0 km/h (0 Bft) 0 min 0,0 km/h (0 Bft)
12.08.2009 00:06 24,0 C 17,1 C 0,0 UV-I 0,0 C 61 % 83 % 0 % 1021,5 hPa 0,0 l/m 0,0 km/h (0 Bft) 0 min 0,0 km/h (0 Bft)
12.08.2009 00:08 24,0 C 17,1 C 0,0 UV-I 0,0 C 61 % 84 % 0 % 1021,5 hPa 0,0 l/m 0,0 km/h (0 Bft) 0 min 0,0 km/h (0 Bft)
12.08.2009 00:10 24,0 C 17,0 C 0,0 UV-I 0,0 C 61 % 84 % 0 % 1021,5 hPa 0,0 l/m 0,0 km/h (0 Bft) 0 min 0,0 km/h (0 Bft)
12.08.2009 00:12 24,0 C 17,1 C 0,0 UV-I 0,0 C 61 % 84 % 0 % 1021,5 hPa 0,0 l/m 0,0 km/h (0 Bft) 0 min 0,0 km/h (0 Bft)
12.08.2009 00:14 24,0 C 17,1 C 0,0 UV-I 0,0 C 61 % 84 % 0 % 1021,5 hPa 0,0 l/m 0,0 km/h (0 Bft) 0 min 0,0 km/h (0 Bft)
12.08.2009 00:16 24,0 C 17,1 C 0,0 UV-I 0,0 C 61 % 84 % 0 % 1021,4 hPa 0,0 l/m 0,0 km/h (0 Bft) 0 min 0,0 km/h (0 Bft)
12.08.2009 00:18 24,0 C 17,1 C 0,0 UV-I 0,0 C 61 % 84 % 0 % 1021,4 hPa 0,0 l/m 0,0 km/h (0 Bft) 0 min 0,0 km/h (0 Bft)
12.08.2009 00:20 24,0 C 17,1 C 0,0 UV-I 0,0 C 61 % 84 % 0 % 1021,4 hPa 0,0 l/m 0,0 km/h (0 Bft) 0 min 0,0 km/h (0 Bft)
12.08.2009 00:22 24,0 C 17,0 C 0,0 UV-I 0,0 C 61 % 84 % 0 % 1021,4 hPa 0,0 l/m 0,0 km/h (0 Bft) 0 min 0,0 km/h (0 Bft)
12.08.2009 00:24 24,0 C 17,0 C 0,0 UV-I 0,0 C 61 % 84 % 0 % 1021,4 hPa 0,0 l/m 0,0 km/h (0 Bft) 0 min 0,0 km/h (0 Bft)
12.08.2009 00:26 24,0 C 16,9 C 0,0 UV-I 0,0 C 61 % 84 % 0 % 1021,4 hPa 0,0 l/m 0,0 km/h (0 Bft) 0 min 0,0 km/h (0 Bft)
12.08.2009 00:28 24,0 C 16,9 C 0,0 UV-I 0,0 C 61 % 84 % 0 % 1021,4 hPa 0,0 l/m 0,0 km/h (0 Bft) 0 min 0,0 km/h (0 Bft)
12.08.2009 00:30 24,0 C 16,9 C 0,0 UV-I 0,0 C 61 % 84 % 0 % 1021,4 hPa 0,0 l/m 0,0 km/h (0 Bft) 0 min 0,0 km/h (0 Bft)
12.08.2009 00:32 24,0 C 17,0 C 0,0 UV-I 0,0 C 61 % 84 % 0 % 1021,4 hPa 0,0 l/m 0,0 km/h (0 Bft) 0 min 0,0 km/h (0 Bft)
12.08.2009 00:34 24,0 C 16,9 C 0,0 UV-I 0,0 C 61 % 84 % 0 % 1021,4 hPa 0,0 l/m 0,0 km/h (0 Bft) 0 min 0,0 km/h (0 Bft)
12.08.2009 00:36 24,0 C 17,0 C 0,0 UV-I 0,0 C 61 % 84 % 0 % 1021,7 hPa 0,0 l/m 0,0 km/h (0 Bft) 0 min 0,0 km/h (0 Bft)
12.08.2009 00:38 24,0 C 16,9 C 0,0 UV-I 0,0 C 61 % 85 % 0 % 1021,7 hPa 0,0 l/m 0,0 km/h (0 Bft) 0 min 0,0 km/h (0 Bft)
12.08.2009 00:40 24,0 C 17,0 C 0,0 UV-I 0,0 C 61 % 85 % 0 % 1021,7 hPa 0,0 l/m 0,0 km/h (0 Bft) 0 min 0,0 km/h (0 Bft)
12.08.2009 00:42 24,0 C 17,0 C 0,0 UV-I 0,0 C 61 % 85 % 0 % 1021,7 hPa 0,0 l/m 0,0 km/h (0 Bft) 0 min 0,0 km/h (0 Bft)
12.08.2009 00:46 24,0 C 17,0 C 0,0 UV-I 0,0 C 61 % 85 % 0 % 1021,7 hPa 0,0 l/m 0,0 km/h (0 Bft) 0 min 0,0 km/h (0 Bft)
12.08.2009 00:48 24,0 C 17,0 C 0,0 UV-I 0,0 C 61 % 85 % 0 % 1021,7 hPa 0,0 l/m 0,0 km/h (0 Bft) 0 min 0,0 km/h (0 Bft)
12.08.2009 00:50 24,0 C 16,9 C 0,0 UV-I 0,0 C 61 % 85 % 0 % 1021,7 hPa 0,0 l/m 0,0 km/h (0 Bft) 0 min 0,0 km/h (0 Bft)
12.08.2009 00:52 24,0 C 16,9 C 0,0 UV-I 0,0 C 61 % 85 % 0 % 1021,7 hPa 0,0 l/m 0,0 km/h (0 Bft) 0 min 0,0 km/h (0 Bft)
12.08.2009 00:54 23,9 C 16,9 C 0,0 UV-I 0,0 C 61 % 85 % 0 % 1021,7 hPa 0,0 l/m 0,0 km/h (0 Bft) 0 min 0,0 km/h (0 Bft)
12.08.2009 00:56 23,9 C 16,9 C 0,0 UV-I 0,0 C 61 % 85 % 0 % 1021,5 hPa 0,0 l/m 0,0 km/h (0 Bft) 0 min 0,0 km/h (0 Bft)
12.08.2009 00:58 24,0 C 16,9 C 0,0 UV-I 0,0 C 61 % 85 % 0 % 1021,5 hPa 0,0 l/m 0,0 km/h (0 Bft) 0 min 0,0 km/h (0 Bft)
12.08.2009 01:00 23,9 C 16,9 C 0,0 UV-I 0,0 C 61 % 85 % 0 % 1021,5 hPa 0,0 l/m 0,0 km/h (0 Bft) 0 min 0,0 km/h (0 Bft)
12.08.2009 01:02 23,9 C 16,9 C 0,0 UV-I 0,0 C 61 % 85 % 0 % 1021,5 hPa 0,0 l/m 0,0 km/h (0 Bft) 0 min 0,0 km/h (0 Bft)
12.08.2009 01:04 24,0 C 16,9 C 0,0 UV-I 0,0 C 61 % 85 % 0 % 1021,5 hPa 0,0 l/m 0,0 km/h (0 Bft) 0 min 0,0 km/h (0 Bft)
12.08.2009 01:06 23,9 C 16,8 C 0,0 UV-I 0,0 C 61 % 85 % 0 % 1021,5 hPa 0,0 l/m 0,0 km/h (0 Bft) 0 min 0,0 km/h (0 Bft)
12.08.2009 01:08 23,9 C 16,9 C 0,0 UV-I 0,0 C 61 % 85 % 0 % 1021,5 hPa 0,0 l/m 0,0 km/h (0 Bft) 0 min 0,0 km/h (0 Bft)
12.08.2009 01:10 23,9 C 16,9 C 0,0 UV-I 0,0 C 61 % 85 % 0 % 1021,5 hPa 0,0 l/m 0,0 km/h (0 Bft) 0 min 0,0 km/h (0 Bft)
12.08.2009 01:12 23,9 C 16,8 C 0,0 UV-I 0,0 C 61 % 85 % 0 % 1021,5 hPa 0,0 l/m 0,0 km/h (0 Bft) 0 min 0,0 km/h (0 Bft)
12.08.2009 01:14 23,9 C 16,8 C 0,0 UV-I 0,0 C 61 % 85 % 0 % 1021,5 hPa 0,0 l/m 0,0 km/h (0 Bft) 0 min 0,0 km/h (0 Bft)
12.08.2009 01:16 23,9 C 16,7 C 0,0 UV-I 0,0 C 61 % 85 % 0 % 1021,5 hPa 0,0 l/m 0,0 km/h (0 Bft) 0 min 0,0 km/h (0 Bft)
12.08.2009 01:18 23,9 C 16,7 C 0,0 UV-I 0,0 C 61 % 85 % 0 % 1021,5 hPa 0,0 l/m 0,0 km/h (0 Bft) 0 min 0,0 km/h (0 Bft)
12.08.2009 01:20 23,9 C 16,7 C 0,0 UV-I 0,0 C 61 % 85 % 0 % 1021,5 hPa 0,0 l/m 0,0 km/h (0 Bft) 0 min 0,0 km/h (0 Bft)
12.08.2009 01:24 23,9 C 16,7 C 0,0 UV-I 0,0 C 61 % 85 % 0 % 1021,5 hPa 0,0 l/m 0,0 km/h (0 Bft) 0 min 0,0 km/h (0 Bft)
12.08.2009 01:26 23,8 C 16,7 C 0,0 UV-I 0,0 C 61 % 85 % 0 % 1021,5 hPa 0,0 l/m 0,0 km/h (0 Bft) 0 min 0,0 km/h (0 Bft)
12.08.2009 01:28 23,9 C 16,6 C 0,0 UV-I 0,0 C 61 % 85 % 0 % 1021,5 hPa 0,0 l/m 0,0 km/h (0 Bft) 0 min 0,0 km/h (0 Bft)
12.08.2009 01:30 23,9 C 16,5 C 0,0 UV-I 0,0 C 61 % 85 % 0 % 1021,5 hPa 0,0 l/m 0,0 km/h (0 Bft) 0 min 0,0 km/h (0 Bft)
12.08.2009 01:32 23,9 C 16,5 C 0,0 UV-I 0,0 C 61 % 85 % 0 % 1021,5 hPa 0,0 l/m 0,0 km/h (0 Bft) 0 min 0,0 km/h (0 Bft)
12.08.2009 01:34 23,9 C 16,5 C 0,0 UV-I 0,0 C 61 % 85 % 0 % 1021,5 hPa 0,0 l/m 0,0 km/h (0 Bft) 0 min 0,0 km/h (0 Bft)
12.08.2009 01:36 23,9 C 16,4 C 0,0 UV-I 0,0 C 61 % 85 % 0 % 1021,6 hPa 0,0 l/m 0,0 km/h (0 Bft) 0 min 0,0 km/h (0 Bft)
12.08.2009 01:38 23,8 C 16,4 C 0,0 UV-I 0,0 C 61 % 85 % 0 % 1021,6 hPa 0,0 l/m 0,0 km/h (0 Bft) 0 min 0,0 km/h (0 Bft)
12.08.2009 01:40 23,8 C 16,5 C 0,0 UV-I 0,0 C 61 % 85 % 0 % 1021,6 hPa 0,0 l/m 0,0 km/h (0 Bft) 0 min 0,0 km/h (0 Bft)
12.08.2009 01:44 23,8 C 16,3 C 0,0 UV-I 0,0 C 61 % 85 % 0 % 1021,6 hPa 0,0 l/m 0,0 km/h (0 Bft) 0 min 0,0 km/h (0 Bft)
12.08.2009 01:46 23,8 C 16,3 C 0,0 UV-I 0,0 C 61 % 85 % 0 % 1021,6 hPa 0,0 l/m 0,0 km/h (0 Bft) 0 min 0,0 km/h (0 Bft)
12.08.2009 01:48 23,8 C 16,3 C 0,0 UV-I 0,0 C 62 % 85 % 0 % 1021,6 hPa 0,0 l/m 0,0 km/h (0 Bft) 0 min 0,0 km/h (0 Bft)
12.08.2009 01:50 23,8 C 16,2 C 0,0 UV-I 0,0 C 61 % 85 % 0 % 1021,6 hPa 0,0 l/m 0,0 km/h (0 Bft) 0 min 0,0 km/h (0 Bft)
12.08.2009 01:52 23,8 C 16,3 C 0,0 UV-I 0,0 C 61 % 86 % 0 % 1021,6 hPa 0,0 l/m 0,0 km/h (0 Bft) 0 min 0,0 km/h (0 Bft)
12.08.2009 01:54 23,8 C 16,3 C 0,0 UV-I 0,0 C 61 % 86 % 0 % 1021,6 hPa 0,0 l/m 0,0 km/h (0 Bft) 0 min 0,0 km/h (0 Bft)
12.08.2009 01:56 23,8 C 16,1 C 0,0 UV-I 0,0 C 61 % 86 % 0 % 1021,2 hPa 0,0 l/m 0,0 km/h (0 Bft) 0 min 0,0 km/h (0 Bft)
12.08.2009 01:58 23,8 C 16,1 C 0,0 UV-I 0,0 C 61 % 86 % 0 % 1021,2 hPa 0,0 l/m 0,0 km/h (0 Bft) 0 min 0,0 km/h (0 Bft)
12.08.2009 02:00 23,8 C 16,1 C 0,0 UV-I 0,0 C 61 % 86 % 0 % 1021,2 hPa 0,0 l/m 0,0 km/h (0 Bft) 0 min 0,0 km/h (0 Bft)
12.08.2009 02:02 23,8 C 16,0 C 0,0 UV-I 0,0 C 61 % 86 % 0 % 1021,2 hPa 0,0 l/m 0,0 km/h (0 Bft) 0 min 0,0 km/h (0 Bft)
12.08.2009 02:04 23,8 C 16,0 C 0,0 UV-I 0,0 C 61 % 86 % 0 % 1021,2 hPa 0,0 l/m 0,0 km/h (0 Bft) 0 min 0,0 km/h (0 Bft)
12.08.2009 02:06 23,8 C 16,0 C 0,0 UV-I 0,0 C 61 % 86 % 0 % 1021,2 hPa 0,0 l/m 0,0 km/h (0 Bft) 0 min 0,0 km/h (0 Bft)
12.08.2009 02:08 23,8 C 16,1 C 0,0 UV-I 0,0 C 61 % 86 % 0 % 1021,2 hPa 0,0 l/m 0,0 km/h (0 Bft) 0 min 0,0 km/h (0 Bft)
12.08.2009 02:10 23,8 C 16,0 C 0,0 UV-I 0,0 C 61 % 86 % 0 % 1021,2 hPa 0,0 l/m 0,0 km/h (0 Bft) 0 min 0,0 km/h (0 Bft)
12.08.2009 02:12 23,8 C 16,0 C 0,0 UV-I 0,0 C 62 % 87 % 0 % 1021,2 hPa 0,0 l/m 0,0 km/h (0 Bft) 0 min 0,0 km/h (0 Bft)
12.08.2009 02:14 23,7 C 16,0 C 0,0 UV-I 0,0 C 62 % 87 % 0 % 1021,2 hPa 0,0 l/m 0,0 km/h (0 Bft) 0 min 0,0 km/h (0 Bft)
12.08.2009 02:16 23,7 C 15,9 C 0,0 UV-I 0,0 C 61 % 87 % 0 % 1021,5 hPa 0,0 l/m 0,0 km/h (0 Bft) 0 min 0,0 km/h (0 Bft)
12.08.2009 02:18 23,8 C 15,9 C 0,0 UV-I 0,0 C 62 % 87 % 0 % 1021,5 hPa 0,0 l/m 0,0 km/h (0 Bft) 0 min 0,0 km/h (0 Bft)
12.08.2009 02:20 23,7 C 15,9 C 0,0 UV-I 0,0 C 61 % 87 % 0 % 1021,5 hPa 0,0 l/m 0,0 km/h (0 Bft) 0 min 0,0 km/h (0 Bft)
12.08.2009 02:22 23,7 C 15,9 C 0,0 UV-I 0,0 C 62 % 87 % 0 % 1021,5 hPa 0,0 l/m 0,0 km/h (0 Bft) 0 min 0,0 km/h (0 Bft)
12.08.2009 02:24 23,7 C 15,9 C 0,0 UV-I 0,0 C 62 % 87 % 0 % 1021,5 hPa 0,0 l/m 0,0 km/h (0 Bft) 0 min 0,0 km/h (0 Bft)
12.08.2009 02:26 23,7 C 15,8 C 0,0 UV-I 0,0 C 61 % 87 % 0 % 1021,5 hPa 0,0 l/m 0,0 km/h (0 Bft) 0 min 0,0 km/h (0 Bft)
12.08.2009 02:28 23,7 C 15,8 C 0,0 UV-I 0,0 C 62 % 87 % 0 % 1021,5 hPa 0,0 l/m 0,2 km/h (0 Bft) 0 min 0,0 km/h (0 Bft)
12.08.2009 02:30 23,7 C 15,9 C 0,0 UV-I 0,0 C 62 % 88 % 0 % 1021,5 hPa 0,0 l/m 0,2 km/h (0 Bft) 0 min 0,0 km/h (0 Bft)
12.08.2009 02:32 23,7 C 15,9 C 0,0 UV-I 0,0 C 62 % 88 % 0 % 1021,5 hPa 0,0 l/m 0,2 km/h (0 Bft) 0 min 4,1 km/h (1 Bft)
12.08.2009 02:34 23,7 C 15,7 C 0,0 UV-I 0,0 C 62 % 88 % 0 % 1021,5 hPa 0,0 l/m 0,2 km/h (0 Bft) 0 min 4,1 km/h (1 Bft)
12.08.2009 02:36 23,7 C 15,7 C 0,0 UV-I 0,0 C 62 % 88 % 0 % 1021,2 hPa 0,0 l/m 0,2 km/h (0 Bft) 0 min 0,0 km/h (0 Bft)
12.08.2009 02:40 23,7 C 15,7 C 0,0 UV-I 0,0 C 62 % 88 % 0 % 1021,2 hPa 0,0 l/m 0,2 km/h (0 Bft) 0 min 0,0 km/h (0 Bft)
12.08.2009 02:42 23,7 C 15,6 C 0,0 UV-I 0,0 C 62 % 88 % 0 % 1021,2 hPa 0,0 l/m 0,2 km/h (0 Bft) 0 min 4,1 km/h (1 Bft)
12.08.2009 02:44 23,7 C 15,6 C 0,0 UV-I 0,0 C 62 % 88 % 0 % 1021,2 hPa 0,0 l/m 0,0 km/h (0 Bft) 0 min 0,0 km/h (0 Bft)
12.08.2009 02:46 23,7 C 15,6 C 0,0 UV-I 0,0 C 62 % 87 % 0 % 1021,2 hPa 0,0 l/m 0,0 km/h (0 Bft) 0 min 0,0 km/h (0 Bft)
12.08.2009 02:48 23,6 C 15,7 C 0,0 UV-I 0,0 C 62 % 88 % 0 % 1021,2 hPa 0,0 l/m 0,0 km/h (0 Bft) 0 min 0,0 km/h (0 Bft)
12.08.2009 02:50 23,6 C 15,6 C 0,0 UV-I 0,0 C 62 % 88 % 0 % 1021,2 hPa 0,0 l/m 0,0 km/h (0 Bft) 0 min 0,0 km/h (0 Bft)
12.08.2009 02:52 23,7 C 15,5 C 0,0 UV-I 0,0 C 62 % 87 % 0 % 1021,2 hPa 0,0 l/m 0,2 km/h (0 Bft) 0 min 2,9 km/h (1 Bft)
12.08.2009 02:54 23,6 C 15,5 C 0,0 UV-I 0,0 C 62 % 88 % 0 % 1021,2 hPa 0,0 l/m 0,2 km/h (0 Bft) 0 min 2,9 km/h (1 Bft)
12.08.2009 02:56 23,6 C 15,5 C 0,0 UV-I 0,0 C 62 % 87 % 0 % 1021,1 hPa 0,0 l/m 0,2 km/h (0 Bft) 0 min 0,0 km/h (0 Bft)
12.08.2009 02:58 23,6 C 15,5 C 0,0 UV-I 0,0 C 62 % 87 % 0 % 1021,1 hPa 0,0 l/m 0,2 km/h (0 Bft) 0 min 0,0 km/h (0 Bft)
12.08.2009 03:00 23,6 C 15,5 C 0,0 UV-I 0,0 C 62 % 87 % 0 % 1021,1 hPa 0,0 l/m 0,2 km/h (0 Bft) 0 min 0,0 km/h (0 Bft)
12.08.2009 03:02 23,6 C 15,5 C 0,0 UV-I 0,0 C 62 % 87 % 0 % 1021,1 hPa 0,0 l/m 0,2 km/h (0 Bft) 0 min 0,0 km/h (0 Bft)
12.08.2009 03:08 23,6 C 15,4 C 0,0 UV-I 0,0 C 62 % 87 % 0 % 1021,1 hPa 0,0 l/m 0,0 km/h (0 Bft) 0 min 0,0 km/h (0 Bft)
12.08.2009 03:10 23,6 C 15,3 C 0,0 UV-I 0,0 C 62 % 87 % 0 % 1021,1 hPa 0,0 l/m 0,0 km/h (0 Bft) 0 min 0,0 km/h (0 Bft)
12.08.2009 03:12 23,6 C 15,3 C 0,0 UV-I 0,0 C 62 % 87 % 0 % 1021,1 hPa 0,0 l/m 0,0 km/h (0 Bft) 0 min 0,0 km/h (0 Bft)
12.08.2009 03:14 23,6 C 15,3 C 0,0 UV-I 0,0 C 62 % 87 % 0 % 1021,1 hPa 0,0 l/m 0,0 km/h (0 Bft) 0 min 0,0 km/h (0 Bft)
12.08.2009 03:16 23,6 C 15,2 C 0,0 UV-I 0,0 C 62 % 87 % 0 % 1021,3 hPa 0,0 l/m 0,0 km/h (0 Bft) 0 min 0,0 km/h (0 Bft)
12.08.2009 03:18 23,6 C 15,2 C 0,0 UV-I 0,0 C 62 % 87 % 0 % 1021,3 hPa 0,0 l/m 0,0 km/h (0 Bft) 0 min 0,0 km/h (0 Bft)
12.08.2009 03:20 23,6 C 15,2 C 0,0 UV-I 0,0 C 62 % 87 % 0 % 1021,3 hPa 0,0 l/m 0,0 km/h (0 Bft) 0 min 0,0 km/h (0 Bft)
12.08.2009 03:22 23,6 C 15,2 C 0,0 UV-I 0,0 C 61 % 87 % 0 % 1021,3 hPa 0,0 l/m 0,0 km/h (0 Bft) 0 min 0,0 km/h (0 Bft)
12.08.2009 03:24 23,6 C 15,1 C 0,0 UV-I 0,0 C 62 % 87 % 0 % 1021,3 hPa 0,0 l/m 0,0 km/h (0 Bft) 0 min 0,0 km/h (0 Bft)
12.08.2009 03:26 23,6 C 15,1 C 0,0 UV-I 0,0 C 61 % 87 % 0 % 1021,3 hPa 0,0 l/m 0,0 km/h (0 Bft) 0 min 0,0 km/h (0 Bft)
12.08.2009 03:28 23,6 C 15,1 C 0,0 UV-I 0,0 C 61 % 87 % 0 % 1021,3 hPa 0,0 l/m 0,0 km/h (0 Bft) 0 min 0,0 km/h (0 Bft)
12.08.2009 03:30 23,5 C 15,1 C 0,0 UV-I 0,0 C 61 % 87 % 0 % 1021,3 hPa 0,0 l/m 0,0 km/h (0 Bft) 0 min 0,0 km/h (0 Bft)
12.08.2009 03:32 23,5 C 15,1 C 0,0 UV-I 0,0 C 61 % 87 % 0 % 1021,3 hPa 0,0 l/m 0,0 km/h (0 Bft) 0 min 0,0 km/h (0 Bft)
12.08.2009 03:34 23,5 C 15,0 C 0,0 UV-I 0,0 C 61 % 87 % 0 % 1021,3 hPa 0,0 l/m 0,0 km/h (0 Bft) 0 min 0,0 km/h (0 Bft)
12.08.2009 03:36 23,5 C 15,1 C 0,0 UV-I 0,0 C 61 % 87 % 0 % 1020,8 hPa 0,0 l/m 0,0 km/h (0 Bft) 0 min 0,0 km/h (0 Bft)
12.08.2009 03:38 23,5 C 15,1 C 0,0 UV-I 0,0 C 61 % 87 % 0 % 1020,8 hPa 0,0 l/m 0,0 km/h (0 Bft) 0 min 0,0 km/h (0 Bft)
12.08.2009 03:40 23,5 C 15,0 C 0,0 UV-I 0,0 C 61 % 88 % 0 % 1020,8 hPa 0,0 l/m 0,0 km/h (0 Bft) 0 min 0,0 km/h (0 Bft)
12.08.2009 03:42 23,5 C 15,0 C 0,0 UV-I 0,0 C 61 % 88 % 0 % 1020,8 hPa 0,0 l/m 0,0 km/h (0 Bft) 0 min 0,0 km/h (0 Bft)
12.08.2009 03:46 23,5 C 15,0 C 0,0 UV-I 0,0 C 61 % 88 % 0 % 1020,8 hPa 0,0 l/m 0,2 km/h (0 Bft) 0 min 0,0 km/h (0 Bft)
12.08.2009 03:48 23,5 C 15,0 C 0,0 UV-I 0,0 C 61 % 88 % 0 % 1020,8 hPa 0,0 l/m 0,2 km/h (0 Bft) 0 min 0,0 km/h (0 Bft)
12.08.2009 03:50 23,5 C 14,9 C 0,0 UV-I 0,0 C 61 % 88 % 0 % 1020,8 hPa 0,0 l/m 0,2 km/h (0 Bft) 0 min 2,9 km/h (1 Bft)
12.08.2009 03:52 23,5 C 14,9 C 0,0 UV-I 0,0 C 61 % 88 % 0 % 1020,8 hPa 0,0 l/m 0,2 km/h (0 Bft) 0 min 2,9 km/h (1 Bft)
12.08.2009 03:54 23,5 C 14,9 C 0,0 UV-I 0,0 C 61 % 88 % 0 % 1020,8 hPa 0,0 l/m 0,2 km/h (0 Bft) 0 min 0,0 km/h (0 Bft)
12.08.2009 03:56 23,4 C 14,9 C 0,0 UV-I 0,0 C 61 % 88 % 0 % 1021,0 hPa 0,0 l/m 0,2 km/h (0 Bft) 0 min 2,6 km/h (1 Bft)
12.08.2009 03:58 23,4 C 14,9 C 0,0 UV-I 0,0 C 61 % 88 % 0 % 1021,0 hPa 0,0 l/m 0,2 km/h (0 Bft) 0 min 2,6 km/h (1 Bft)
12.08.2009 04:00 23,4 C 14,9 C 0,0 UV-I 0,0 C 61 % 88 % 0 % 1021,0 hPa 0,0 l/m 0,2 km/h (0 Bft) 0 min 0,0 km/h (0 Bft)
12.08.2009 04:02 23,4 C 14,9 C 0,0 UV-I 0,0 C 61 % 88 % 0 % 1021,0 hPa 0,0 l/m 0,0 km/h (0 Bft) 0 min 0,0 km/h (0 Bft)
12.08.2009 04:04 23,4 C 14,9 C 0,0 UV-I 0,0 C 61 % 88 % 0 % 1021,0 hPa 0,0 l/m 0,2 km/h (0 Bft) 0 min 0,0 km/h (0 Bft)
12.08.2009 04:08 23,4 C 14,9 C 0,0 UV-I 0,0 C 61 % 88 % 0 % 1021,0 hPa 0,0 l/m 0,2 km/h (0 Bft) 0 min 0,0 km/h (0 Bft)
12.08.2009 04:10 23,4 C 14,8 C 0,0 UV-I 0,0 C 61 % 88 % 0 % 1021,0 hPa 0,0 l/m 0,5 km/h (0 Bft) 0 min 3,6 km/h (1 Bft)
12.08.2009 04:12 23,4 C 14,8 C 0,0 UV-I 0,0 C 61 % 88 % 0 % 1021,0 hPa 0,0 l/m 0,5 km/h (0 Bft) 0 min 5,1 km/h (1 Bft)
12.08.2009 04:14 23,4 C 14,8 C 0,0 UV-I 0,0 C 61 % 88 % 0 % 1021,0 hPa 0,0 l/m 0,5 km/h (0 Bft) 0 min 0,0 km/h (0 Bft)
12.08.2009 04:16 23,4 C 14,8 C 0,0 UV-I 0,0 C 61 % 88 % 0 % 1020,8 hPa 0,0 l/m 0,5 km/h (0 Bft) 0 min 0,0 km/h (0 Bft)
12.08.2009 04:18 23,4 C 14,8 C 0,0 UV-I 0,0 C 61 % 88 % 0 % 1020,8 hPa 0,0 l/m 0,2 km/h (0 Bft) 0 min 0,0 km/h (0 Bft)
12.08.2009 04:20 23,4 C 14,8 C 0,0 UV-I 0,0 C 61 % 88 % 0 % 1020,8 hPa 0,0 l/m 0,2 km/h (0 Bft) 0 min 0,0 km/h (0 Bft)
12.08.2009 04:22 23,4 C 14,8 C 0,0 UV-I 0,0 C 61 % 89 % 0 % 1020,8 hPa 0,0 l/m 0,0 km/h (0 Bft) 0 min 0,0 km/h (0 Bft)
12.08.2009 04:24 23,4 C 14,8 C 0,0 UV-I 0,0 C 61 % 89 % 0 % 1020,8 hPa 0,0 l/m 0,0 km/h (0 Bft) 0 min 0,0 km/h (0 Bft)
12.08.2009 04:26 23,4 C 14,8 C 0,0 UV-I 0,0 C 61 % 89 % 0 % 1020,8 hPa 0,0 l/m 0,5 km/h (0 Bft) 0 min 4,3 km/h (1 Bft)
12.08.2009 04:28 23,4 C 14,8 C 0,0 UV-I 0,0 C 61 % 89 % 0 % 1020,8 hPa 0,0 l/m 1,0 km/h (0 Bft) 0 min 4,3 km/h (1 Bft)
12.08.2009 04:30 23,4 C 14,8 C 0,0 UV-I 0,0 C 61 % 89 % 0 % 1020,8 hPa 0,0 l/m 1,2 km/h (1 Bft) 0 min 3,6 km/h (1 Bft)
12.08.2009 04:32 23,4 C 14,8 C 0,0 UV-I 0,0 C 61 % 89 % 0 % 1020,8 hPa 0,0 l/m 1,4 km/h (1 Bft) 0 min 5,3 km/h (1 Bft)
12.08.2009 04:34 23,4 C 14,8 C 0,0 UV-I 0,0 C 61 % 89 % 0 % 1020,8 hPa 0,0 l/m 1,9 km/h (1 Bft) 0 min 5,1 km/h (1 Bft)
12.08.2009 04:36 23,4 C 14,8 C 0,0 UV-I 0,0 C 61 % 89 % 0 % 1020,8 hPa 0,0 l/m 2,2 km/h (1 Bft) 0 min 5,8 km/h (2 Bft)
12.08.2009 04:38 23,4 C 14,8 C 0,0 UV-I 0,0 C 61 % 89 % 0 % 1020,8 hPa 0,0 l/m 1,9 km/h (1 Bft) 0 min 5,8 km/h (2 Bft)
12.08.2009 04:40 23,4 C 14,9 C 0,0 UV-I 0,0 C 61 % 89 % 0 % 1020,8 hPa 0,0 l/m 2,2 km/h (1 Bft) 0 min 3,1 km/h (1 Bft)
12.08.2009 04:42 23,4 C 14,8 C 0,0 UV-I 0,0 C 61 % 89 % 0 % 1020,8 hPa 0,0 l/m 2,4 km/h (1 Bft) 0 min 6,0 km/h (2 Bft)
12.08.2009 04:44 23,2 C 14,8 C 0,0 UV-I 0,0 C 61 % 89 % 0 % 1020,8 hPa 0,0 l/m 2,2 km/h (1 Bft) 0 min 3,6 km/h (1 Bft)
12.08.2009 04:46 23,2 C 14,8 C 0,0 UV-I 0,0 C 61 % 89 % 0 % 1020,8 hPa 0,0 l/m 1,7 km/h (1 Bft) 0 min 3,1 km/h (1 Bft)
12.08.2009 04:48 23,2 C 14,9 C 0,0 UV-I 0,0 C 61 % 89 % 0 % 1020,8 hPa 0,0 l/m 1,4 km/h (1 Bft) 0 min 0,0 km/h (0 Bft)
12.08.2009 04:50 23,2 C 14,9 C 0,0 UV-I 0,0 C 61 % 89 % 0 % 1020,8 hPa 0,0 l/m 1,4 km/h (1 Bft) 0 min 0,0 km/h (0 Bft)
12.08.2009 04:52 23,2 C 14,9 C 0,0 UV-I 0,0 C 61 % 89 % 0 % 1020,8 hPa 0,0 l/m 1,0 km/h (0 Bft) 0 min 3,4 km/h (1 Bft)
12.08.2009 04:54 23,2 C 14,9 C 0,0 UV-I 0,0 C 61 % 89 % 0 % 1020,8 hPa 0,0 l/m 1,0 km/h (0 Bft) 0 min 3,4 km/h (1 Bft)
12.08.2009 04:56 23,2 C 14,9 C 0,0 UV-I 0,0 C 61 % 90 % 0 % 1020,5 hPa 0,0 l/m 1,2 km/h (1 Bft) 0 min 3,8 km/h (1 Bft)
12.08.2009 04:58 23,3 C 14,9 C 0,0 UV-I 0,0 C 61 % 90 % 0 % 1020,5 hPa 0,0 l/m 1,4 km/h (1 Bft) 0 min 3,8 km/h (1 Bft)
12.08.2009 05:00 23,3 C 14,9 C 0,0 UV-I 0,0 C 61 % 90 % 0 % 1020,5 hPa 0,0 l/m 1,4 km/h (1 Bft) 0 min 3,1 km/h (1 Bft)
12.08.2009 05:02 23,3 C 14,9 C 0,0 UV-I 0,0 C 61 % 90 % 0 % 1020,5 hPa 0,0 l/m 1,2 km/h (1 Bft) 0 min 0,0 km/h (0 Bft)
12.08.2009 05:04 23,2 C 14,9 C 0,0 UV-I 0,0 C 61 % 90 % 0 % 1020,5 hPa 0,0 l/m 1,4 km/h (1 Bft) 0 min 2,6 km/h (1 Bft)
12.08.2009 05:06 23,3 C 14,9 C 0,0 UV-I 0,0 C 61 % 90 % 0 % 1020,5 hPa 0,0 l/m 1,4 km/h (1 Bft) 0 min 3,8 km/h (1 Bft)
12.08.2009 05:10 23,3 C 15,1 C 0,0 UV-I 0,0 C 61 % 90 % 0 % 1020,5 hPa 0,0 l/m 1,2 km/h (1 Bft) 0 min 0,0 km/h (0 Bft)
12.08.2009 05:14 23,2 C 15,0 C 0,0 UV-I 0,0 C 61 % 90 % 0 % 1020,5 hPa 0,0 l/m 1,4 km/h (1 Bft) 0 min 2,4 km/h (1 Bft)
12.08.2009 05:16 23,3 C 15,1 C 0,0 UV-I 0,0 C 61 % 90 % 0 % 1020,6 hPa 0,0 l/m 1,4 km/h (1 Bft) 0 min 2,4 km/h (1 Bft)
12.08.2009 05:18 23,2 C 15,1 C 0,0 UV-I 0,0 C 61 % 90 % 0 % 1020,6 hPa 0,0 l/m 1,0 km/h (0 Bft) 0 min 0,0 km/h (0 Bft)
12.08.2009 05:20 23,2 C 15,1 C 0,0 UV-I 0,0 C 61 % 90 % 0 % 1020,6 hPa 0,0 l/m 1,2 km/h (1 Bft) 0 min 0,0 km/h (0 Bft)
12.08.2009 05:22 23,2 C 15,1 C 0,0 UV-I 0,0 C 61 % 90 % 0 % 1020,6 hPa 0,0 l/m 1,2 km/h (1 Bft) 0 min 8,9 km/h (2 Bft)
12.08.2009 05:24 23,2 C 15,2 C 0,0 UV-I 0,0 C 61 % 89 % 0 % 1020,6 hPa 0,0 l/m 1,0 km/h (0 Bft) 0 min 3,8 km/h (1 Bft)
12.08.2009 05:26 23,2 C 15,2 C 0,0 UV-I 0,0 C 61 % 89 % 0 % 1020,6 hPa 0,0 l/m 1,0 km/h (0 Bft) 0 min 0,0 km/h (0 Bft)
12.08.2009 05:28 23,2 C 15,2 C 0,0 UV-I 0,0 C 61 % 90 % 0 % 1020,6 hPa 0,0 l/m 1,2 km/h (1 Bft) 0 min 4,6 km/h (1 Bft)
12.08.2009 05:30 23,2 C 15,3 C 0,0 UV-I 0,0 C 61 % 89 % 0 % 1020,6 hPa 0,0 l/m 1,2 km/h (1 Bft) 0 min 4,6 km/h (1 Bft)
12.08.2009 05:32 23,2 C 15,2 C 0,0 UV-I 0,0 C 61 % 89 % 0 % 1020,6 hPa 0,0 l/m 1,2 km/h (1 Bft) 0 min 0,0 km/h (0 Bft)
12.08.2009 05:34 23,2 C 15,2 C 0,0 UV-I 0,0 C 61 % 89 % 0 % 1020,6 hPa 0,0 l/m 1,4 km/h (1 Bft) 0 min 4,3 km/h (1 Bft)
12.08.2009 05:36 23,2 C 15,3 C 0,0 UV-I 0,0 C 61 % 89 % 0 % 1020,2 hPa 0,0 l/m 1,4 km/h (1 Bft) 0 min 4,3 km/h (1 Bft)
12.08.2009 05:38 23,2 C 15,3 C 0,0 UV-I 0,0 C 61 % 89 % 0 % 1020,2 hPa 0,0 l/m 1,7 km/h (1 Bft) 0 min 3,8 km/h (1 Bft)
12.08.2009 05:40 23,2 C 15,3 C 0,0 UV-I 0,0 C 61 % 89 % 0 % 1020,2 hPa 0,0 l/m 1,4 km/h (1 Bft) 0 min 3,8 km/h (1 Bft)
12.08.2009 05:42 23,2 C 15,3 C 0,0 UV-I 0,0 C 61 % 89 % 0 % 1020,2 hPa 0,0 l/m 1,2 km/h (1 Bft) 0 min 0,0 km/h (0 Bft)
12.08.2009 05:44 23,2 C 15,4 C 0,0 UV-I 0,0 C 61 % 89 % 0 % 1020,2 hPa 0,0 l/m 1,0 km/h (0 Bft) 0 min 0,0 km/h (0 Bft)
12.08.2009 05:46 23,2 C 15,5 C 0,0 UV-I 0,0 C 61 % 89 % 0 % 1020,2 hPa 0,0 l/m 0,7 km/h (0 Bft) 0 min 2,4 km/h (1 Bft)
12.08.2009 05:48 23,2 C 15,5 C 0,0 UV-I 0,0 C 61 % 89 % 0 % 1020,2 hPa 0,0 l/m 0,5 km/h (0 Bft) 0 min 3,8 km/h (1 Bft)
12.08.2009 05:50 23,2 C 15,5 C 0,0 UV-I 0,0 C 61 % 89 % 0 % 1020,2 hPa 0,0 l/m 0,7 km/h (0 Bft) 0 min 5,8 km/h (2 Bft)
12.08.2009 05:52 23,2 C 15,4 C 0,0 UV-I 0,0 C 61 % 89 % 0 % 1020,2 hPa 0,0 l/m 1,0 km/h (0 Bft) 0 min 5,8 km/h (2 Bft)
12.08.2009 05:54 23,2 C 15,5 C 0,0 UV-I 0,0 C 61 % 89 % 0 % 1020,2 hPa 0,0 l/m 1,4 km/h (1 Bft) 0 min 5,5 km/h (1 Bft)
12.08.2009 05:56 23,2 C 15,5 C 0,0 UV-I 0,0 C 61 % 89 % 0 % 1020,5 hPa 0,0 l/m 1,4 km/h (1 Bft) 0 min 2,9 km/h (1 Bft)
12.08.2009 05:58 23,2 C 15,5 C 0,0 UV-I 0,0 C 61 % 89 % 0 % 1020,5 hPa 0,0 l/m 1,9 km/h (1 Bft) 0 min 4,8 km/h (1 Bft)
12.08.2009 06:00 23,2 C 15,5 C 0,0 UV-I 0,0 C 61 % 89 % 0 % 1020,5 hPa 0,0 l/m 2,2 km/h (1 Bft) 0 min 4,8 km/h (1 Bft)
12.08.2009 06:02 23,2 C 15,6 C 0,0 UV-I 0,0 C 61 % 89 % 0 % 1020,5 hPa 0,0 l/m 1,9 km/h (1 Bft) 0 min 7,5 km/h (2 Bft)
12.08.2009 06:04 23,2 C 15,6 C 0,0 UV-I 0,0 C 61 % 89 % 0 % 1020,5 hPa 0,0 l/m 1,9 km/h (1 Bft) 0 min 7,5 km/h (2 Bft)
12.08.2009 06:06 23,2 C 15,6 C 0,0 UV-I 0,0 C 61 % 89 % 0 % 1020,5 hPa 0,0 l/m 2,4 km/h (1 Bft) 0 min 7,5 km/h (2 Bft)
12.08.2009 06:08 23,2 C 15,7 C 0,0 UV-I 0,0 C 61 % 89 % 0 % 1020,5 hPa 0,0 l/m 2,9 km/h (1 Bft) 0 min 7,0 km/h (2 Bft)
12.08.2009 06:10 23,2 C 15,6 C 0,0 UV-I 0,0 C 61 % 89 % 0 % 1020,5 hPa 0,0 l/m 2,6 km/h (1 Bft) 0 min 5,8 km/h (2 Bft)
12.08.2009 06:12 23,2 C 15,6 C 0,0 UV-I 0,0 C 61 % 89 % 0 % 1020,5 hPa 0,0 l/m 2,4 km/h (1 Bft) 0 min 5,3 km/h (1 Bft)
12.08.2009 06:14 23,2 C 15,6 C 0,0 UV-I 0,0 C 61 % 89 % 0 % 1020,5 hPa 0,0 l/m 2,2 km/h (1 Bft) 0 min 5,3 km/h (1 Bft)
12.08.2009 06:16 23,2 C 15,6 C 0,0 UV-I 0,0 C 61 % 89 % 0 % 1020,7 hPa 0,0 l/m 1,9 km/h (1 Bft) 0 min 5,5 km/h (1 Bft)
12.08.2009 06:18 23,2 C 15,7 C 0,0 UV-I 0,0 C 61 % 88 % 0 % 1020,7 hPa 0,0 l/m 1,4 km/h (1 Bft) 0 min 5,5 km/h (1 Bft)
12.08.2009 06:20 23,2 C 15,6 C 0,0 UV-I 0,0 C 61 % 88 % 0 % 1020,7 hPa 0,0 l/m 1,0 km/h (0 Bft) 0 min 2,6 km/h (1 Bft)
12.08.2009 06:22 23,2 C 15,7 C 0,0 UV-I 0,0 C 61 % 88 % 0 % 1020,7 hPa 0,0 l/m 1,2 km/h (1 Bft) 0 min 2,9 km/h (1 Bft)
12.08.2009 06:24 23,2 C 15,7 C 0,0 UV-I 0,0 C 61 % 88 % 0 % 1020,7 hPa 0,0 l/m 1,2 km/h (1 Bft) 0 min 6,5 km/h (2 Bft)
12.08.2009 06:26 23,2 C 15,7 C 0,0 UV-I 0,0 C 61 % 88 % 0 % 1020,7 hPa 0,0 l/m 1,2 km/h (1 Bft) 0 min 6,5 km/h (2 Bft)
12.08.2009 06:28 23,2 C 15,7 C 0,0 UV-I 0,0 C 61 % 88 % 0 % 1020,7 hPa 0,0 l/m 1,4 km/h (1 Bft) 0 min 5,8 km/h (2 Bft)
12.08.2009 06:30 23,2 C 15,9 C 0,0 UV-I 0,0 C 61 % 88 % 0 % 1020,7 hPa 0,0 l/m 1,7 km/h (1 Bft) 0 min 5,8 km/h (2 Bft)
12.08.2009 06:32 23,2 C 15,9 C 0,0 UV-I 0,0 C 61 % 88 % 0 % 1020,7 hPa 0,0 l/m 1,9 km/h (1 Bft) 0 min 5,3 km/h (1 Bft)
12.08.2009 06:34 23,2 C 15,8 C 0,0 UV-I 0,0 C 61 % 88 % 0 % 1020,7 hPa 0,0 l/m 1,9 km/h (1 Bft) 0 min 4,1 km/h (1 Bft)
12.08.2009 06:36 23,2 C 15,9 C 0,0 UV-I 0,0 C 61 % 88 % 0 % 1020,3 hPa 0,0 l/m 1,9 km/h (1 Bft) 0 min 3,4 km/h (1 Bft)
12.08.2009 06:38 23,2 C 15,9 C 0,0 UV-I 0,0 C 61 % 88 % 0 % 1020,3 hPa 0,0 l/m 1,7 km/h (1 Bft) 0 min 3,4 km/h (1 Bft)
12.08.2009 06:40 23,2 C 15,9 C 0,0 UV-I 0,0 C 61 % 88 % 0 % 1020,3 hPa 0,0 l/m 1,9 km/h (1 Bft) 0 min 6,3 km/h (2 Bft)
12.08.2009 06:42 23,2 C 15,9 C 0,0 UV-I 0,0 C 61 % 88 % 0 % 1020,3 hPa 0,0 l/m 2,2 km/h (1 Bft) 0 min 6,3 km/h (2 Bft)
12.08.2009 06:44 23,2 C 15,9 C 0,0 UV-I 0,0 C 61 % 88 % 0 % 1020,3 hPa 0,0 l/m 1,9 km/h (1 Bft) 0 min 5,8 km/h (2 Bft)
12.08.2009 06:46 23,2 C 15,9 C 0,0 UV-I 0,0 C 61 % 88 % 0 % 1020,3 hPa 0,0 l/m 2,2 km/h (1 Bft) 0 min 4,3 km/h (1 Bft)
12.08.2009 06:48 23,2 C 15,9 C 0,0 UV-I 0,0 C 61 % 88 % 0 % 1020,3 hPa 0,0 l/m 2,9 km/h (1 Bft) 0 min 9,1 km/h (2 Bft)
12.08.2009 06:50 23,2 C 16,0 C 0,0 UV-I 0,0 C 61 % 88 % 0 % 1020,3 hPa 0,0 l/m 2,6 km/h (1 Bft) 0 min 9,1 km/h (2 Bft)
12.08.2009 06:52 23,2 C 16,1 C 0,0 UV-I 0,0 C 61 % 88 % 0 % 1020,3 hPa 0,0 l/m 1,9 km/h (1 Bft) 0 min 9,1 km/h (2 Bft)
12.08.2009 06:54 23,2 C 16,0 C 0,0 UV-I 0,0 C 61 % 88 % 0 % 1020,3 hPa 0,0 l/m 1,9 km/h (1 Bft) 0 min 5,3 km/h (1 Bft)
12.08.2009 06:56 23,2 C 16,1 C 0,0 UV-I 0,0 C 61 % 88 % 0 % 1020,4 hPa 0,0 l/m 2,2 km/h (1 Bft) 0 min 6,5 km/h (2 Bft)
12.08.2009 06:58 23,2 C 16,0 C 0,0 UV-I 0,0 C 61 % 88 % 0 % 1020,4 hPa 0,0 l/m 2,6 km/h (1 Bft) 0 min 9,4 km/h (2 Bft)
12.08.2009 07:00 23,2 C 16,0 C 0,0 UV-I 0,0 C 61 % 88 % 0 % 1020,4 hPa 0,0 l/m 2,6 km/h (1 Bft) 0 min 9,4 km/h (2 Bft)
12.08.2009 07:02 23,2 C 16,1 C 0,0 UV-I 0,0 C 61 % 88 % 0 % 1020,4 hPa 0,0 l/m 2,9 km/h (1 Bft) 0 min 9,4 km/h (2 Bft)
12.08.2009 07:04 23,2 C 16,1 C 0,0 UV-I 0,0 C 61 % 88 % 0 % 1020,4 hPa 0,0 l/m 2,9 km/h (1 Bft) 0 min 4,6 km/h (1 Bft)
12.08.2009 07:06 23,2 C 16,1 C 0,0 UV-I 0,0 C 61 % 88 % 0 % 1020,4 hPa 0,0 l/m 3,1 km/h (1 Bft) 0 min 7,0 km/h (2 Bft)
12.08.2009 07:08 23,2 C 16,1 C 0,0 UV-I 0,0 C 61 % 88 % 0 % 1020,4 hPa 0,0 l/m 2,4 km/h (1 Bft) 0 min 7,0 km/h (2 Bft)
12.08.2009 07:10 23,2 C 16,2 C 0,0 UV-I 0,0 C 61 % 88 % 0 % 1020,4 hPa 0,0 l/m 2,2 km/h (1 Bft) 0 min 2,4 km/h (1 Bft)
12.08.2009 07:12 23,2 C 16,3 C 0,0 UV-I 0,0 C 61 % 88 % 0 % 1020,4 hPa 0,0 l/m 1,9 km/h (1 Bft) 0 min 10,6 km/h (2 Bft)
12.08.2009 07:14 23,2 C 16,3 C 0,0 UV-I 0,0 C 61 % 87 % 0 % 1020,4 hPa 0,0 l/m 1,9 km/h (1 Bft) 0 min 4,3 km/h (1 Bft)
12.08.2009 07:16 23,2 C 16,3 C 0,0 UV-I 0,0 C 61 % 87 % 0 % 1020,2 hPa 0,0 l/m 1,9 km/h (1 Bft) 0 min 5,1 km/h (1 Bft)
12.08.2009 07:18 23,2 C 16,2 C 0,0 UV-I 0,0 C 61 % 87 % 0 % 1020,2 hPa 0,0 l/m 1,4 km/h (1 Bft) 0 min 0,0 km/h (0 Bft)
12.08.2009 07:20 23,2 C 16,3 C 0,0 UV-I 0,0 C 61 % 87 % 0 % 1020,2 hPa 0,0 l/m 1,7 km/h (1 Bft) 0 min 7,2 km/h (2 Bft)
12.08.2009 07:22 23,2 C 16,3 C 0,0 UV-I 0,0 C 61 % 87 % 0 % 1020,2 hPa 0,0 l/m 1,9 km/h (1 Bft) 0 min 7,2 km/h (2 Bft)
12.08.2009 07:24 23,2 C 16,3 C 0,0 UV-I 0,0 C 61 % 87 % 0 % 1020,2 hPa 0,0 l/m 2,4 km/h (1 Bft) 0 min 6,7 km/h (2 Bft)
12.08.2009 07:26 23,2 C 16,4 C 0,0 UV-I 0,0 C 61 % 87 % 0 % 1020,2 hPa 0,0 l/m 2,2 km/h (1 Bft) 0 min 6,7 km/h (2 Bft)
12.08.2009 07:28 23,2 C 16,4 C 0,0 UV-I 0,0 C 61 % 87 % 0 % 1020,2 hPa 0,0 l/m 1,9 km/h (1 Bft) 0 min 2,6 km/h (1 Bft)
12.08.2009 07:30 23,2 C 16,4 C 0,0 UV-I 0,0 C 61 % 87 % 0 % 1020,2 hPa 0,0 l/m 2,2 km/h (1 Bft) 0 min 6,0 km/h (2 Bft)
12.08.2009 07:32 23,2 C 16,5 C 0,1 UV-I 0,0 C 61 % 87 % 0 % 1020,2 hPa 0,0 l/m 1,9 km/h (1 Bft) 0 min 10,8 km/h (2 Bft)
12.08.2009 07:34 23,2 C 16,5 C 0,1 UV-I 0,0 C 61 % 87 % 0 % 1020,2 hPa 0,0 l/m 2,4 km/h (1 Bft) 0 min 4,3 km/h (1 Bft)
12.08.2009 07:36 23,2 C 16,5 C 0,1 UV-I 0,1 C 61 % 87 % 3 % 1020,6 hPa 0,0 l/m 2,6 km/h (1 Bft) 0 min 8,2 km/h (2 Bft)
12.08.2009 07:38 23,2 C 16,5 C 0,1 UV-I 0,1 C 61 % 86 % 3 % 1020,6 hPa 0,0 l/m 3,4 km/h (1 Bft) 0 min 8,2 km/h (2 Bft)
12.08.2009 07:40 23,2 C 16,6 C 0,1 UV-I 0,0 C 61 % 86 % 0 % 1020,6 hPa 0,0 l/m 3,8 km/h (1 Bft) 0 min 6,3 km/h (2 Bft)
12.08.2009 07:42 23,2 C 16,6 C 0,2 UV-I 0,0 C 61 % 86 % 0 % 1020,6 hPa 0,0 l/m 3,8 km/h (1 Bft) 0 min 6,3 km/h (2 Bft)
12.08.2009 07:44 23,2 C 16,6 C 0,2 UV-I 0,1 C 61 % 86 % 3 % 1020,6 hPa 0,0 l/m 4,3 km/h (1 Bft) 0 min 6,0 km/h (2 Bft)
12.08.2009 07:46 23,2 C 16,6 C 0,2 UV-I 0,1 C 61 % 86 % 3 % 1020,6 hPa 0,0 l/m 4,1 km/h (1 Bft) 0 min 6,0 km/h (2 Bft)
12.08.2009 07:48 23,2 C 16,6 C 0,3 UV-I 0,2 C 61 % 86 % 6 % 1020,6 hPa 0,0 l/m 3,6 km/h (1 Bft) 0 min 8,9 km/h (2 Bft)
12.08.2009 07:50 23,2 C 16,7 C 0,3 UV-I 0,1 C 61 % 86 % 3 % 1020,6 hPa 0,0 l/m 3,6 km/h (1 Bft) 0 min 8,9 km/h (2 Bft)
12.08.2009 07:52 23,2 C 16,8 C 0,5 UV-I 0,0 C 61 % 86 % 0 % 1020,6 hPa 0,0 l/m 3,4 km/h (1 Bft) 0 min 6,7 km/h (2 Bft)
12.08.2009 07:54 23,2 C 16,7 C 0,5 UV-I 0,1 C 61 % 86 % 3 % 1020,6 hPa 0,0 l/m 3,4 km/h (1 Bft) 0 min 6,7 km/h (2 Bft)
12.08.2009 07:56 23,2 C 16,8 C 0,5 UV-I 0,0 C 61 % 86 % 0 % 1020,4 hPa 0,0 l/m 3,4 km/h (1 Bft) 0 min 12,0 km/h (2 Bft)
12.08.2009 07:58 23,2 C 16,8 C 0,6 UV-I 0,0 C 61 % 86 % 0 % 1020,4 hPa 0,0 l/m 3,6 km/h (1 Bft) 0 min 12,0 km/h (2 Bft)
12.08.2009 08:00 23,2 C 16,9 C 0,6 UV-I 0,0 C 61 % 86 % 0 % 1020,4 hPa 0,0 l/m 3,4 km/h (1 Bft) 0 min 6,5 km/h (2 Bft)
12.08.2009 08:02 23,2 C 16,8 C 0,6 UV-I 0,2 C 61 % 86 % 6 % 1020,4 hPa 0,0 l/m 3,6 km/h (1 Bft) 0 min 12,0 km/h (2 Bft)
12.08.2009 08:04 23,2 C 16,9 C 0,6 UV-I 0,1 C 61 % 86 % 3 % 1020,4 hPa 0,0 l/m 3,1 km/h (1 Bft) 0 min 5,3 km/h (1 Bft)
12.08.2009 08:06 23,2 C 16,9 C 0,6 UV-I 0,2 C 61 % 85 % 6 % 1020,4 hPa 0,0 l/m 3,4 km/h (1 Bft) 0 min 6,5 km/h (2 Bft)
12.08.2009 08:08 23,2 C 17,0 C 0,6 UV-I 0,3 C 61 % 85 % 9 % 1020,4 hPa 0,0 l/m 3,4 km/h (1 Bft) 0 min 6,5 km/h (2 Bft)
12.08.2009 08:10 23,2 C 17,0 C 0,6 UV-I 0,3 C 61 % 85 % 9 % 1020,4 hPa 0,0 l/m 2,9 km/h (1 Bft) 0 min 4,3 km/h (1 Bft)
12.08.2009 08:12 23,2 C 17,0 C 0,7 UV-I 0,4 C 61 % 85 % 11 % 1020,4 hPa 0,0 l/m 3,1 km/h (1 Bft) 0 min 13,0 km/h (3 Bft)
12.08.2009 08:14 23,2 C 17,1 C 0,7 UV-I 0,4 C 61 % 85 % 11 % 1020,4 hPa 0,0 l/m 2,6 km/h (1 Bft) 0 min 0,0 km/h (0 Bft)
12.08.2009 08:16 23,2 C 17,1 C 0,7 UV-I 0,5 C 61 % 85 % 14 % 1020,6 hPa 0,0 l/m 2,9 km/h (1 Bft) 0 min 7,0 km/h (2 Bft)
12.08.2009 08:18 23,2 C 17,1 C 0,8 UV-I 0,5 C 61 % 85 % 14 % 1020,6 hPa 0,0 l/m 2,2 km/h (1 Bft) 0 min 7,0 km/h (2 Bft)
12.08.2009 08:20 23,2 C 17,2 C 0,8 UV-I 0,5 C 61 % 85 % 14 % 1020,6 hPa 0,0 l/m 2,6 km/h (1 Bft) 0 min 5,3 km/h (1 Bft)
12.08.2009 08:22 23,2 C 17,3 C 0,7 UV-I 0,5 C 61 % 84 % 14 % 1020,6 hPa 0,0 l/m 2,6 km/h (1 Bft) 0 min 5,3 km/h (1 Bft)
12.08.2009 08:24 23,2 C 17,2 C 0,7 UV-I 0,6 C 61 % 84 % 17 % 1020,6 hPa 0,0 l/m 2,9 km/h (1 Bft) 0 min 8,2 km/h (2 Bft)
12.08.2009 08:26 23,2 C 17,3 C 0,7 UV-I 0,6 C 61 % 84 % 17 % 1020,6 hPa 0,0 l/m 3,4 km/h (1 Bft) 0 min 8,2 km/h (2 Bft)
12.08.2009 08:28 23,2 C 17,3 C 0,6 UV-I 0,6 C 61 % 84 % 17 % 1020,6 hPa 0,0 l/m 3,6 km/h (1 Bft) 0 min 5,8 km/h (2 Bft)
12.08.2009 08:30 23,2 C 17,5 C 0,6 UV-I 0,4 C 61 % 84 % 11 % 1020,6 hPa 0,0 l/m 4,1 km/h (1 Bft) 0 min 7,2 km/h (2 Bft)
12.08.2009 08:32 23,2 C 17,5 C 0,6 UV-I 0,4 C 61 % 84 % 11 % 1020,6 hPa 0,0 l/m 4,1 km/h (1 Bft) 0 min 7,2 km/h (2 Bft)
12.08.2009 08:34 23,2 C 17,4 C 0,6 UV-I 0,5 C 61 % 84 % 14 % 1020,6 hPa 0,0 l/m 4,1 km/h (1 Bft) 0 min 6,7 km/h (2 Bft)
12.08.2009 08:36 23,2 C 17,5 C 0,6 UV-I 0,5 C 61 % 83 % 14 % 1020,6 hPa 0,0 l/m 3,8 km/h (1 Bft) 0 min 5,5 km/h (1 Bft)
12.08.2009 08:38 23,2 C 17,5 C 0,7 UV-I 0,5 C 61 % 84 % 14 % 1020,6 hPa 0,0 l/m 3,8 km/h (1 Bft) 0 min 5,5 km/h (1 Bft)
12.08.2009 08:40 23,3 C 17,5 C 0,7 UV-I 0,5 C 61 % 83 % 14 % 1020,6 hPa 0,0 l/m 3,4 km/h (1 Bft) 0 min 4,6 km/h (1 Bft)
12.08.2009 08:42 23,3 C 17,6 C 0,7 UV-I 0,4 C 61 % 83 % 11 % 1020,6 hPa 0,0 l/m 3,4 km/h (1 Bft) 0 min 6,3 km/h (2 Bft)
12.08.2009 08:44 23,3 C 17,7 C 0,7 UV-I 0,4 C 61 % 83 % 11 % 1020,6 hPa 0,0 l/m 3,6 km/h (1 Bft) 0 min 6,3 km/h (2 Bft)
12.08.2009 08:46 23,2 C 17,7 C 0,7 UV-I 0,4 C 61 % 83 % 11 % 1020,6 hPa 0,0 l/m 3,1 km/h (1 Bft) 0 min 0,0 km/h (0 Bft)
12.08.2009 08:48 23,2 C 17,6 C 0,7 UV-I 0,6 C 61 % 83 % 17 % 1020,6 hPa 0,0 l/m 2,6 km/h (1 Bft) 0 min 9,9 km/h (2 Bft)
12.08.2009 08:50 23,2 C 17,7 C 0,7 UV-I 0,5 C 61 % 83 % 14 % 1020,6 hPa 0,0 l/m 2,6 km/h (1 Bft) 0 min 9,9 km/h (2 Bft)
12.08.2009 08:52 23,2 C 17,7 C 0,8 UV-I 0,6 C 61 % 83 % 17 % 1020,6 hPa 0,0 l/m 2,2 km/h (1 Bft) 0 min 0,0 km/h (0 Bft)
12.08.2009 08:54 23,3 C 17,7 C 0,8 UV-I 0,6 C 61 % 83 % 17 % 1020,6 hPa 0,0 l/m 2,4 km/h (1 Bft) 0 min 7,9 km/h (2 Bft)
12.08.2009 08:56 23,2 C 17,9 C 0,8 UV-I 0,4 C 61 % 83 % 11 % 1020,6 hPa 0,0 l/m 3,1 km/h (1 Bft) 0 min 7,9 km/h (2 Bft)
12.08.2009 08:58 23,2 C 17,9 C 1,1 UV-I 0,5 C 61 % 83 % 14 % 1020,6 hPa 0,0 l/m 3,6 km/h (1 Bft) 0 min 7,7 km/h (2 Bft)
12.08.2009 09:00 23,2 C 17,9 C 1,1 UV-I 0,6 C 61 % 83 % 17 % 1020,6 hPa 0,0 l/m 3,8 km/h (1 Bft) 0 min 8,7 km/h (2 Bft)
12.08.2009 09:02 23,4 C 17,9 C 1,2 UV-I 0,6 C 61 % 82 % 17 % 1020,6 hPa 0,0 l/m 3,8 km/h (1 Bft) 0 min 8,7 km/h (2 Bft)
12.08.2009 09:04 23,2 C 18,0 C 1,2 UV-I 0,6 C 61 % 82 % 17 % 1020,6 hPa 0,0 l/m 3,8 km/h (1 Bft) 0 min 8,4 km/h (2 Bft)
12.08.2009 09:08 23,4 C 18,0 C 1,2 UV-I 0,7 C 61 % 82 % 20 % 1020,6 hPa 0,0 l/m 3,4 km/h (1 Bft) 0 min 8,4 km/h (2 Bft)
12.08.2009 09:10 23,2 C 18,0 C 1,2 UV-I 0,8 C 61 % 82 % 23 % 1020,6 hPa 0,0 l/m 2,6 km/h (1 Bft) 0 min 7,2 km/h (2 Bft)
12.08.2009 09:12 23,4 C 18,1 C 1,4 UV-I 0,8 C 61 % 82 % 23 % 1020,6 hPa 0,0 l/m 2,9 km/h (1 Bft) 0 min 6,7 km/h (2 Bft)
12.08.2009 09:14 23,4 C 18,1 C 1,4 UV-I 0,8 C 61 % 82 % 23 % 1020,6 hPa 0,0 l/m 3,1 km/h (1 Bft) 0 min 7,9 km/h (2 Bft)
12.08.2009 09:16 23,4 C 18,3 C 1,4 UV-I 0,8 C 61 % 82 % 23 % 1020,5 hPa 0,0 l/m 3,1 km/h (1 Bft) 0 min 9,9 km/h (2 Bft)
12.08.2009 09:18 23,4 C 18,3 C 1,5 UV-I 0,8 C 61 % 82 % 23 % 1020,5 hPa 0,0 l/m 3,6 km/h (1 Bft) 0 min 12,8 km/h (3 Bft)
12.08.2009 09:22 23,4 C 18,3 C 1,4 UV-I 0,9 C 61 % 81 % 26 % 1020,5 hPa 0,0 l/m 4,1 km/h (1 Bft) 0 min 14,9 km/h (3 Bft)
12.08.2009 09:24 23,4 C 18,4 C 1,4 UV-I 0,8 C 61 % 81 % 23 % 1020,5 hPa 0,0 l/m 4,3 km/h (1 Bft) 0 min 6,5 km/h (2 Bft)
12.08.2009 09:26 23,4 C 18,4 C 1,4 UV-I 0,8 C 61 % 81 % 23 % 1020,5 hPa 0,0 l/m 4,3 km/h (1 Bft) 0 min 6,3 km/h (2 Bft)
12.08.2009 09:28 23,4 C 18,4 C 1,3 UV-I 0,8 C 61 % 81 % 23 % 1020,5 hPa 0,0 l/m 4,1 km/h (1 Bft) 0 min 6,3 km/h (2 Bft)
12.08.2009 09:30 23,5 C 18,4 C 1,3 UV-I 0,8 C 61 % 81 % 23 % 1020,5 hPa 0,0 l/m 3,6 km/h (1 Bft) 0 min 3,8 km/h (1 Bft)
12.08.2009 09:32 23,4 C 18,6 C 1,5 UV-I 0,7 C 61 % 81 % 20 % 1020,5 hPa 0,0 l/m 4,1 km/h (1 Bft) 0 min 9,9 km/h (2 Bft)
12.08.2009 09:34 23,5 C 18,6 C 1,5 UV-I 0,7 C 61 % 81 % 20 % 1020,5 hPa 0,0 l/m 4,3 km/h (1 Bft) 0 min 7,0 km/h (2 Bft)
12.08.2009 09:36 23,5 C 18,7 C 1,5 UV-I 0,7 C 61 % 80 % 20 % 1020,5 hPa 0,0 l/m 4,3 km/h (1 Bft) 0 min 7,0 km/h (2 Bft)
12.08.2009 09:38 23,5 C 18,6 C 1,7 UV-I 0,9 C 61 % 80 % 26 % 1020,5 hPa 0,0 l/m 4,3 km/h (1 Bft) 0 min 13,0 km/h (3 Bft)
12.08.2009 09:40 23,5 C 18,7 C 1,7 UV-I 0,8 C 61 % 80 % 23 % 1020,5 hPa 0,0 l/m 4,8 km/h (1 Bft) 0 min 13,0 km/h (3 Bft)
12.08.2009 09:42 23,5 C 18,7 C 1,8 UV-I 0,8 C 61 % 80 % 23 % 1020,5 hPa 0,0 l/m 4,6 km/h (1 Bft) 0 min 5,8 km/h (2 Bft)
12.08.2009 09:44 23,5 C 18,7 C 1,8 UV-I 0,9 C 60 % 80 % 26 % 1020,5 hPa 0,0 l/m 4,3 km/h (1 Bft) 0 min 4,6 km/h (1 Bft)
12.08.2009 09:46 23,5 C 18,8 C 1,8 UV-I 1,0 C 60 % 80 % 29 % 1020,5 hPa 0,0 l/m 4,3 km/h (1 Bft) 0 min 5,1 km/h (1 Bft)
12.08.2009 09:48 23,5 C 18,8 C 2,3 UV-I 1,2 C 60 % 80 % 34 % 1020,5 hPa 0,0 l/m 4,6 km/h (1 Bft) 0 min 5,1 km/h (1 Bft)
12.08.2009 09:50 23,6 C 18,8 C 2,3 UV-I 1,4 C 60 % 80 % 40 % 1020,5 hPa 0,0 l/m 3,6 km/h (1 Bft) 0 min 3,6 km/h (1 Bft)
12.08.2009 09:52 23,6 C 18,9 C 2,6 UV-I 1,4 C 60 % 80 % 40 % 1020,5 hPa 0,0 l/m 3,6 km/h (1 Bft) 0 min 6,7 km/h (2 Bft)
12.08.2009 09:54 23,6 C 18,9 C 2,6 UV-I 1,6 C 60 % 80 % 46 % 1020,5 hPa 0,0 l/m 4,1 km/h (1 Bft) 0 min 6,7 km/h (2 Bft)
12.08.2009 09:56 23,6 C 19,0 C 2,6 UV-I 1,5 C 60 % 80 % 43 % 1020,6 hPa 0,0 l/m 3,8 km/h (1 Bft) 0 min 4,8 km/h (1 Bft)
12.08.2009 10:00 23,6 C 19,1 C 2,1 UV-I 1,4 C 60 % 80 % 40 % 1020,6 hPa 0,0 l/m 3,8 km/h (1 Bft) 0 min 4,3 km/h (1 Bft)
12.08.2009 10:02 23,6 C 19,1 C 1,4 UV-I 1,3 C 60 % 80 % 37 % 1020,6 hPa 0,0 l/m 3,6 km/h (1 Bft) 0 min 3,1 km/h (1 Bft)
12.08.2009 10:04 23,6 C 19,1 C 1,4 UV-I 1,3 C 60 % 80 % 37 % 1020,6 hPa 0,0 l/m 3,6 km/h (1 Bft) 0 min 3,1 km/h (1 Bft)
12.08.2009 10:06 23,6 C 19,2 C 1,4 UV-I 1,2 C 60 % 81 % 34 % 1020,6 hPa 0,0 l/m 3,4 km/h (1 Bft) 0 min 10,6 km/h (2 Bft)
12.08.2009 10:08 23,6 C 19,3 C 1,5 UV-I 1,1 C 60 % 81 % 31 % 1020,6 hPa 0,0 l/m 3,6 km/h (1 Bft) 0 min 12,8 km/h (3 Bft)
12.08.2009 10:10 23,6 C 19,3 C 1,5 UV-I 1,0 C 60 % 81 % 29 % 1020,6 hPa 0,0 l/m 3,6 km/h (1 Bft) 0 min 12,8 km/h (3 Bft)
12.08.2009 10:12 23,6 C 19,2 C 1,2 UV-I 1,0 C 60 % 80 % 29 % 1020,6 hPa 0,0 l/m 3,1 km/h (1 Bft) 0 min 15,4 km/h (3 Bft)
12.08.2009 10:14 23,6 C 19,2 C 1,2 UV-I 1,0 C 60 % 80 % 29 % 1020,6 hPa 0,0 l/m 3,1 km/h (1 Bft) 0 min 7,9 km/h (2 Bft)
12.08.2009 10:16 23,6 C 19,3 C 1,2 UV-I 1,0 C 60 % 81 % 29 % 1020,5 hPa 0,0 l/m 2,6 km/h (1 Bft) 0 min 7,9 km/h (2 Bft)
12.08.2009 10:18 23,6 C 19,3 C 1,5 UV-I 1,0 C 60 % 81 % 29 % 1020,5 hPa 0,0 l/m 2,2 km/h (1 Bft) 0 min 2,9 km/h (1 Bft)
12.08.2009 10:20 23,6 C 19,5 C 1,5 UV-I 0,9 C 60 % 80 % 26 % 1020,5 hPa 0,0 l/m 1,9 km/h (1 Bft) 0 min 5,1 km/h (1 Bft)
12.08.2009 10:22 23,6 C 19,4 C 1,5 UV-I 1,1 C 60 % 81 % 31 % 1020,5 hPa 0,0 l/m 2,2 km/h (1 Bft) 0 min 5,1 km/h (1 Bft)
12.08.2009 10:24 23,6 C 19,4 C 1,5 UV-I 1,1 C 60 % 80 % 31 % 1020,5 hPa 0,0 l/m 2,6 km/h (1 Bft) 0 min 0,0 km/h (0 Bft)
12.08.2009 10:26 23,7 C 19,5 C 1,5 UV-I 1,1 C 60 % 80 % 31 % 1020,5 hPa 0,0 l/m 2,6 km/h (1 Bft) 0 min 8,7 km/h (2 Bft)
12.08.2009 10:30 23,6 C 19,6 C 1,6 UV-I 1,0 C 60 % 80 % 29 % 1020,5 hPa 0,0 l/m 2,6 km/h (1 Bft) 0 min 8,7 km/h (2 Bft)
12.08.2009 10:32 23,7 C 19,7 C 1,6 UV-I 0,9 C 60 % 80 % 26 % 1020,5 hPa 0,0 l/m 2,4 km/h (1 Bft) 0 min 5,3 km/h (1 Bft)
12.08.2009 10:34 23,7 C 19,6 C 1,6 UV-I 1,1 C 60 % 80 % 31 % 1020,5 hPa 0,0 l/m 2,4 km/h (1 Bft) 0 min 5,8 km/h (2 Bft)
12.08.2009 10:36 23,7 C 19,6 C 1,6 UV-I 1,2 C 60 % 79 % 34 % 1020,3 hPa 0,0 l/m 2,9 km/h (1 Bft) 0 min 5,8 km/h (2 Bft)
12.08.2009 10:40 23,7 C 19,8 C 2,4 UV-I 1,1 C 60 % 79 % 31 % 1020,3 hPa 0,0 l/m 3,4 km/h (1 Bft) 0 min 8,7 km/h (2 Bft)
12.08.2009 10:42 23,7 C 19,9 C 2,6 UV-I 1,2 C 60 % 79 % 34 % 1020,3 hPa 0,0 l/m 3,6 km/h (1 Bft) 0 min 8,7 km/h (2 Bft)
12.08.2009 10:44 23,7 C 19,8 C 2,6 UV-I 1,5 C 60 % 79 % 43 % 1020,3 hPa 0,0 l/m 3,8 km/h (1 Bft) 0 min 8,2 km/h (2 Bft)
12.08.2009 10:46 23,7 C 19,9 C 2,6 UV-I 1,4 C 60 % 79 % 40 % 1020,3 hPa 0,0 l/m 3,8 km/h (1 Bft) 0 min 11,3 km/h (2 Bft)
12.08.2009 10:48 23,8 C 19,9 C 2,3 UV-I 1,5 C 60 % 78 % 43 % 1020,3 hPa 0,0 l/m 4,1 km/h (1 Bft) 0 min 11,3 km/h (2 Bft)
12.08.2009 10:50 23,8 C 20,0 C 2,3 UV-I 1,5 C 60 % 78 % 43 % 1020,3 hPa 0,0 l/m 3,8 km/h (1 Bft) 0 min 6,5 km/h (2 Bft)
12.08.2009 10:52 23,8 C 20,1 C 2,5 UV-I 1,4 C 60 % 78 % 40 % 1020,3 hPa 0,0 l/m 3,6 km/h (1 Bft) 0 min 5,8 km/h (2 Bft)
12.08.2009 10:54 23,8 C 20,0 C 2,5 UV-I 1,6 C 60 % 78 % 46 % 1020,3 hPa 0,0 l/m 3,8 km/h (1 Bft) 0 min 7,9 km/h (2 Bft)
12.08.2009 10:56 23,8 C 20,1 C 2,5 UV-I 1,5 C 60 % 78 % 43 % 1020,8 hPa 0,0 l/m 3,4 km/h (1 Bft) 0 min 7,9 km/h (2 Bft)
12.08.2009 10:58 23,8 C 20,1 C 2,1 UV-I 1,4 C 60 % 78 % 40 % 1020,8 hPa 0,0 l/m 2,9 km/h (1 Bft) 0 min 3,6 km/h (1 Bft)
12.08.2009 11:00 23,8 C 20,2 C 2,1 UV-I 1,3 C 60 % 78 % 37 % 1020,8 hPa 0,0 l/m 2,9 km/h (1 Bft) 0 min 4,6 km/h (1 Bft)
12.08.2009 11:04 23,8 C 20,2 C 1,8 UV-I 1,2 C 60 % 77 % 34 % 1020,8 hPa 0,0 l/m 2,6 km/h (1 Bft) 0 min 4,6 km/h (1 Bft)
12.08.2009 11:08 23,8 C 20,2 C 2,2 UV-I 1,3 C 60 % 77 % 37 % 1020,8 hPa 0,0 l/m 2,6 km/h (1 Bft) 0 min 5,1 km/h (1 Bft)
12.08.2009 11:10 23,8 C 20,3 C 2,2 UV-I 1,2 C 60 % 77 % 34 % 1020,8 hPa 0,0 l/m 2,9 km/h (1 Bft) 0 min 4,6 km/h (1 Bft)
12.08.2009 11:12 23,8 C 20,3 C 1,9 UV-I 1,2 C 60 % 77 % 34 % 1020,8 hPa 0,0 l/m 3,1 km/h (1 Bft) 0 min 12,0 km/h (2 Bft)
12.08.2009 11:14 23,8 C 20,3 C 1,9 UV-I 1,1 C 60 % 77 % 31 % 1020,8 hPa 0,0 l/m 3,1 km/h (1 Bft) 0 min 12,0 km/h (2 Bft)
12.08.2009 11:16 23,9 C 20,3 C 1,9 UV-I 1,0 C 60 % 77 % 29 % 1020,4 hPa 0,0 l/m 3,6 km/h (1 Bft) 0 min 11,1 km/h (2 Bft)
12.08.2009 11:20 23,9 C 20,3 C 1,6 UV-I 0,8 C 60 % 77 % 23 % 1020,4 hPa 0,0 l/m 4,3 km/h (1 Bft) 0 min 11,1 km/h (2 Bft)
12.08.2009 11:22 23,9 C 20,3 C 1,6 UV-I 0,7 C 60 % 77 % 20 % 1020,4 hPa 0,0 l/m 5,1 km/h (1 Bft) 0 min 11,5 km/h (2 Bft)
12.08.2009 11:24 23,9 C 20,3 C 1,6 UV-I 0,6 C 60 % 76 % 17 % 1020,4 hPa 0,0 l/m 5,3 km/h (1 Bft) 0 min 11,5 km/h (2 Bft)
12.08.2009 11:26 23,9 C 20,2 C 1,6 UV-I 0,6 C 60 % 77 % 17 % 1020,4 hPa 0,0 l/m 4,6 km/h (1 Bft) 0 min 7,7 km/h (2 Bft)
12.08.2009 11:28 23,9 C 20,3 C 1,5 UV-I 0,5 C 60 % 77 % 14 % 1020,4 hPa 0,0 l/m 4,1 km/h (1 Bft) 0 min 6,7 km/h (2 Bft)
12.08.2009 11:30 23,9 C 20,3 C 1,5 UV-I 0,5 C 60 % 77 % 14 % 1020,4 hPa 0,0 l/m 4,3 km/h (1 Bft) 0 min 13,0 km/h (3 Bft)
12.08.2009 11:34 23,9 C 20,3 C 1,9 UV-I 0,4 C 60 % 77 % 11 % 1020,4 hPa 0,0 l/m 4,1 km/h (1 Bft) 0 min 13,0 km/h (3 Bft)
12.08.2009 11:36 23,9 C 20,3 C 1,9 UV-I 0,5 C 60 % 77 % 14 % 1020,7 hPa 0,0 l/m 4,1 km/h (1 Bft) 0 min 7,2 km/h (2 Bft)
12.08.2009 11:38 23,9 C 20,3 C 2,5 UV-I 0,5 C 60 % 77 % 14 % 1020,7 hPa 0,0 l/m 4,8 km/h (1 Bft) 0 min 5,8 km/h (2 Bft)
12.08.2009 11:40 24,0 C 20,3 C 2,5 UV-I 0,6 C 60 % 77 % 17 % 1020,7 hPa 0,0 l/m 4,3 km/h (1 Bft) 0 min 4,8 km/h (1 Bft)
12.08.2009 11:42 23,9 C 20,3 C 2,5 UV-I 0,8 C 60 % 77 % 23 % 1020,7 hPa 0,0 l/m 4,1 km/h (1 Bft) 0 min 8,4 km/h (2 Bft)
12.08.2009 11:44 24,0 C 20,3 C 2,5 UV-I 0,9 C 60 % 77 % 26 % 1020,7 hPa 0,0 l/m 4,1 km/h (1 Bft) 0 min 9,4 km/h (2 Bft)
12.08.2009 11:46 24,0 C 20,4 C 2,5 UV-I 0,9 C 60 % 77 % 26 % 1020,7 hPa 0,0 l/m 4,3 km/h (1 Bft) 0 min 9,4 km/h (2 Bft)
12.08.2009 11:48 24,0 C 20,4 C 2,4 UV-I 0,9 C 60 % 77 % 26 % 1020,7 hPa 0,0 l/m 4,1 km/h (1 Bft) 0 min 6,5 km/h (2 Bft)
12.08.2009 11:50 24,0 C 20,5 C 2,4 UV-I 0,8 C 60 % 76 % 23 % 1020,7 hPa 0,0 l/m 4,1 km/h (1 Bft) 0 min 5,8 km/h (2 Bft)
12.08.2009 11:52 24,0 C 20,5 C 1,6 UV-I 0,8 C 60 % 77 % 23 % 1020,7 hPa 0,0 l/m 4,1 km/h (1 Bft) 0 min 5,5 km/h (1 Bft)
12.08.2009 11:54 24,0 C 20,4 C 1,6 UV-I 0,7 C 60 % 77 % 20 % 1020,7 hPa 0,0 l/m 4,6 km/h (1 Bft) 0 min 6,5 km/h (2 Bft)
12.08.2009 11:56 24,0 C 20,4 C 1,6 UV-I 0,5 C 60 % 77 % 14 % 1020,4 hPa 0,0 l/m 4,3 km/h (1 Bft) 0 min 7,5 km/h (2 Bft)
12.08.2009 11:58 24,0 C 20,5 C 1,9 UV-I 0,4 C 60 % 77 % 11 % 1020,4 hPa 0,0 l/m 4,3 km/h (1 Bft) 0 min 13,7 km/h (3 Bft)
12.08.2009 12:00 24,0 C 20,4 C 1,9 UV-I 0,5 C 60 % 77 % 14 % 1020,4 hPa 0,0 l/m 4,3 km/h (1 Bft) 0 min 7,2 km/h (2 Bft)
12.08.2009 12:04 24,0 C 20,4 C 1,9 UV-I 0,5 C 60 % 77 % 14 % 1020,4 hPa 0,0 l/m 4,6 km/h (1 Bft) 0 min 4,6 km/h (1 Bft)
12.08.2009 12:06 24,0 C 20,5 C 1,9 UV-I 0,6 C 60 % 76 % 17 % 1020,4 hPa 0,0 l/m 4,1 km/h (1 Bft) 0 min 5,1 km/h (1 Bft)
12.08.2009 12:08 24,0 C 20,4 C 2,0 UV-I 0,7 C 60 % 76 % 20 % 1020,4 hPa 0,0 l/m 4,6 km/h (1 Bft) 0 min 5,1 km/h (1 Bft)
12.08.2009 12:10 24,0 C 20,5 C 2,0 UV-I 0,6 C 60 % 76 % 17 % 1020,4 hPa 0,0 l/m 4,3 km/h (1 Bft) 0 min 13,0 km/h (3 Bft)
12.08.2009 12:12 24,0 C 20,5 C 2,4 UV-I 0,8 C 60 % 76 % 23 % 1020,4 hPa 0,0 l/m 4,8 km/h (1 Bft) 0 min 13,0 km/h (3 Bft)
12.08.2009 12:14 24,0 C 20,5 C 2,4 UV-I 0,8 C 60 % 76 % 23 % 1020,4 hPa 0,0 l/m 4,8 km/h (1 Bft) 0 min 10,6 km/h (2 Bft)
12.08.2009 12:16 24,0 C 20,7 C 2,4 UV-I 0,7 C 60 % 76 % 20 % 1020,3 hPa 0,0 l/m 4,6 km/h (1 Bft) 0 min 10,6 km/h (2 Bft)
12.08.2009 12:18 24,0 C 20,7 C 2,4 UV-I 0,8 C 60 % 76 % 23 % 1020,3 hPa 0,0 l/m 4,1 km/h (1 Bft) 0 min 6,3 km/h (2 Bft)
12.08.2009 12:20 24,0 C 20,6 C 2,4 UV-I 1,0 C 60 % 76 % 29 % 1020,3 hPa 0,0 l/m 4,6 km/h (1 Bft) 0 min 11,3 km/h (2 Bft)
12.08.2009 12:22 24,0 C 20,7 C 2,5 UV-I 1,0 C 60 % 77 % 29 % 1020,3 hPa 0,0 l/m 3,8 km/h (1 Bft) 0 min 11,3 km/h (2 Bft)
12.08.2009 12:24 24,0 C 20,7 C 2,5 UV-I 1,0 C 60 % 77 % 29 % 1020,3 hPa 0,0 l/m 3,8 km/h (1 Bft) 0 min 3,8 km/h (1 Bft)
12.08.2009 12:28 24,1 C 20,8 C 2,1 UV-I 1,0 C 60 % 77 % 29 % 1020,3 hPa 0,0 l/m 3,8 km/h (1 Bft) 0 min 7,9 km/h (2 Bft)
12.08.2009 12:30 24,0 C 20,8 C 2,1 UV-I 0,9 C 60 % 77 % 26 % 1020,3 hPa 0,0 l/m 3,8 km/h (1 Bft) 0 min 6,0 km/h (2 Bft)
12.08.2009 12:32 24,1 C 20,9 C 2,7 UV-I 0,9 C 60 % 77 % 26 % 1020,3 hPa 0,0 l/m 3,4 km/h (1 Bft) 0 min 6,0 km/h (2 Bft)
12.08.2009 12:34 24,1 C 20,8 C 2,7 UV-I 1,2 C 60 % 77 % 34 % 1020,3 hPa 0,0 l/m 3,6 km/h (1 Bft) 0 min 2,6 km/h (1 Bft)
12.08.2009 12:36 24,1 C 20,9 C 2,7 UV-I 1,2 C 60 % 76 % 34 % 1020,1 hPa 0,0 l/m 3,6 km/h (1 Bft) 0 min 5,5 km/h (1 Bft)
12.08.2009 12:38 24,1 C 20,9 C 3,0 UV-I 1,3 C 60 % 77 % 37 % 1020,1 hPa 0,0 l/m 3,4 km/h (1 Bft) 0 min 5,5 km/h (1 Bft)
12.08.2009 12:40 24,1 C 21,0 C 3,0 UV-I 1,4 C 60 % 77 % 40 % 1020,1 hPa 0,0 l/m 3,4 km/h (1 Bft) 0 min 4,3 km/h (1 Bft)
12.08.2009 12:42 24,1 C 21,1 C 3,3 UV-I 1,4 C 60 % 76 % 40 % 1020,1 hPa 0,0 l/m 3,1 km/h (1 Bft) 0 min 15,9 km/h (3 Bft)
12.08.2009 12:44 24,1 C 21,0 C 3,3 UV-I 1,6 C 60 % 76 % 46 % 1020,1 hPa 0,0 l/m 3,1 km/h (1 Bft) 0 min 7,7 km/h (2 Bft)
12.08.2009 12:46 24,1 C 21,1 C 3,3 UV-I 1,6 C 60 % 76 % 46 % 1020,1 hPa 0,0 l/m 3,1 km/h (1 Bft) 0 min 12,5 km/h (3 Bft)
12.08.2009 12:48 24,1 C 21,2 C 4,2 UV-I 1,7 C 60 % 76 % 49 % 1020,1 hPa 0,0 l/m 3,1 km/h (1 Bft) 0 min 12,5 km/h (3 Bft)
12.08.2009 12:50 24,2 C 21,2 C 4,2 UV-I 2,1 C 60 % 76 % 60 % 1020,1 hPa 0,0 l/m 3,1 km/h (1 Bft) 0 min 5,1 km/h (1 Bft)
12.08.2009 12:52 24,2 C 21,3 C 4,4 UV-I 2,2 C 60 % 76 % 63 % 1020,1 hPa 0,0 l/m 3,1 km/h (1 Bft) 0 min 4,1 km/h (1 Bft)
12.08.2009 12:54 24,2 C 21,5 C 4,4 UV-I 2,3 C 60 % 75 % 66 % 1020,1 hPa 0,0 l/m 3,6 km/h (1 Bft) 0 min 8,2 km/h (2 Bft)
12.08.2009 12:56 24,2 C 21,5 C 4,4 UV-I 2,5 C 60 % 75 % 71 % 1020,1 hPa 0,0 l/m 3,8 km/h (1 Bft) 0 min 10,8 km/h (2 Bft)
12.08.2009 12:58 24,2 C 21,6 C 5,0 UV-I 2,6 C 60 % 74 % 74 % 1020,1 hPa 0,0 l/m 4,3 km/h (1 Bft) 0 min 14,4 km/h (3 Bft)
12.08.2009 13:00 24,2 C 21,6 C 5,0 UV-I 2,6 C 60 % 74 % 74 % 1020,1 hPa 0,0 l/m 4,8 km/h (1 Bft) 0 min 14,4 km/h (3 Bft)
12.08.2009 13:02 24,2 C 21,6 C 3,5 UV-I 2,5 C 60 % 74 % 71 % 1020,1 hPa 0,0 l/m 4,6 km/h (1 Bft) 0 min 5,5 km/h (1 Bft)
12.08.2009 13:04 24,3 C 21,7 C 3,5 UV-I 2,3 C 60 % 74 % 66 % 1020,1 hPa 0,0 l/m 4,3 km/h (1 Bft) 0 min 3,4 km/h (1 Bft)
12.08.2009 13:06 24,3 C 21,7 C 3,5 UV-I 2,5 C 60 % 74 % 71 % 1020,1 hPa 0,0 l/m 3,6 km/h (1 Bft) 0 min 4,8 km/h (1 Bft)
12.08.2009 13:10 24,3 C 21,9 C 3,5 UV-I 2,4 C 60 % 73 % 69 % 1020,1 hPa 0,0 l/m 2,6 km/h (1 Bft) 0 min 4,8 km/h (1 Bft)
12.08.2009 13:12 24,3 C 21,9 C 3,6 UV-I 2,5 C 60 % 73 % 71 % 1020,1 hPa 0,0 l/m 3,1 km/h (1 Bft) 0 min 9,9 km/h (2 Bft)
12.08.2009 13:14 24,3 C 22,1 C 3,6 UV-I 2,3 C 60 % 73 % 66 % 1020,1 hPa 0,0 l/m 3,4 km/h (1 Bft) 0 min 9,9 km/h (2 Bft)
12.08.2009 13:16 24,2 C 22,0 C 3,6 UV-I 2,5 C 60 % 72 % 71 % 1019,9 hPa 0,0 l/m 4,3 km/h (1 Bft) 0 min 7,9 km/h (2 Bft)
12.08.2009 13:18 24,2 C 22,1 C 4,7 UV-I 2,6 C 60 % 73 % 74 % 1019,9 hPa 0,0 l/m 4,1 km/h (1 Bft) 0 min 7,9 km/h (2 Bft)
12.08.2009 13:20 24,4 C 22,1 C 4,7 UV-I 2,8 C 60 % 72 % 80 % 1019,9 hPa 0,0 l/m 4,3 km/h (1 Bft) 0 min 8,2 km/h (2 Bft)
12.08.2009 13:22 24,4 C 22,3 C 4,2 UV-I 2,7 C 60 % 72 % 77 % 1019,9 hPa 0,0 l/m 4,8 km/h (1 Bft) 0 min 16,8 km/h (3 Bft)
12.08.2009 13:24 24,4 C 22,2 C 4,2 UV-I 2,7 C 60 % 71 % 77 % 1019,9 hPa 0,0 l/m 4,8 km/h (1 Bft) 0 min 6,7 km/h (2 Bft)
12.08.2009 13:26 24,4 C 22,3 C 4,2 UV-I 2,6 C 60 % 71 % 74 % 1019,9 hPa 0,0 l/m 5,3 km/h (1 Bft) 0 min 9,6 km/h (2 Bft)
12.08.2009 13:28 24,4 C 22,4 C 4,3 UV-I 2,5 C 59 % 71 % 71 % 1019,9 hPa 0,0 l/m 5,5 km/h (1 Bft) 0 min 9,6 km/h (2 Bft)
12.08.2009 13:30 24,4 C 22,4 C 4,3 UV-I 2,5 C 59 % 71 % 71 % 1019,9 hPa 0,0 l/m 5,8 km/h (2 Bft) 0 min 9,4 km/h (2 Bft)
12.08.2009 13:34 24,4 C 22,4 C 4,0 UV-I 2,5 C 59 % 71 % 71 % 1019,9 hPa 0,0 l/m 5,3 km/h (1 Bft) 0 min 23,1 km/h (4 Bft)
12.08.2009 13:38 24,5 C 22,7 C 4,7 UV-I 2,3 C 59 % 72 % 66 % 1019,7 hPa 0,0 l/m 4,8 km/h (1 Bft) 0 min 8,7 km/h (2 Bft)
12.08.2009 13:40 24,5 C 22,7 C 4,7 UV-I 2,6 C 60 % 72 % 74 % 1019,7 hPa 0,0 l/m 4,1 km/h (1 Bft) 0 min 6,3 km/h (2 Bft)
12.08.2009 13:42 24,5 C 22,8 C 5,0 UV-I 2,7 C 60 % 72 % 77 % 1019,7 hPa 0,0 l/m 3,8 km/h (1 Bft) 0 min 8,7 km/h (2 Bft)
12.08.2009 13:44 24,5 C 22,8 C 5,0 UV-I 2,8 C 60 % 72 % 80 % 1019,7 hPa 0,0 l/m 3,8 km/h (1 Bft) 0 min 8,7 km/h (2 Bft)
12.08.2009 13:46 24,6 C 22,9 C 5,0 UV-I 2,7 C 60 % 72 % 77 % 1019,7 hPa 0,0 l/m 3,8 km/h (1 Bft) 0 min 7,9 km/h (2 Bft)
12.08.2009 13:48 24,6 C 22,9 C 3,9 UV-I 2,6 C 60 % 72 % 74 % 1019,7 hPa 0,0 l/m 3,6 km/h (1 Bft) 0 min 5,3 km/h (1 Bft)
12.08.2009 13:50 24,6 C 23,1 C 3,9 UV-I 2,3 C 60 % 71 % 66 % 1019,7 hPa 0,0 l/m 3,6 km/h (1 Bft) 0 min 0,0 km/h (0 Bft)
12.08.2009 13:52 24,6 C 23,0 C 2,9 UV-I 2,3 C 60 % 71 % 66 % 1019,7 hPa 0,0 l/m 3,6 km/h (1 Bft) 0 min 3,4 km/h (1 Bft)
12.08.2009 13:54 24,6 C 23,1 C 2,9 UV-I 2,1 C 60 % 71 % 60 % 1019,7 hPa 0,0 l/m 3,6 km/h (1 Bft) 0 min 9,1 km/h (2 Bft)
12.08.2009 13:56 24,6 C 23,0 C 2,9 UV-I 2,0 C 60 % 70 % 57 % 1019,5 hPa 0,0 l/m 3,6 km/h (1 Bft) 0 min 9,1 km/h (2 Bft)
12.08.2009 13:58 24,6 C 23,1 C 2,3 UV-I 1,7 C 59 % 70 % 49 % 1019,5 hPa 0,0 l/m 3,6 km/h (1 Bft) 0 min 5,1 km/h (1 Bft)
12.08.2009 14:00 24,6 C 23,1 C 2,3 UV-I 1,4 C 59 % 70 % 40 % 1019,5 hPa 0,0 l/m 3,6 km/h (1 Bft) 0 min 5,5 km/h (1 Bft)
12.08.2009 14:02 24,6 C 23,1 C 2,0 UV-I 1,3 C 59 % 70 % 37 % 1019,5 hPa 0,0 l/m 3,6 km/h (1 Bft) 0 min 6,7 km/h (2 Bft)
12.08.2009 14:04 24,6 C 23,0 C 2,0 UV-I 1,1 C 59 % 70 % 31 % 1019,5 hPa 0,0 l/m 3,4 km/h (1 Bft) 0 min 6,7 km/h (2 Bft)
12.08.2009 14:06 24,6 C 23,0 C 2,0 UV-I 0,9 C 59 % 70 % 26 % 1019,5 hPa 0,0 l/m 3,1 km/h (1 Bft) 0 min 2,9 km/h (1 Bft)
12.08.2009 14:08 24,6 C 23,1 C 1,7 UV-I 0,7 C 59 % 70 % 20 % 1019,5 hPa 0,0 l/m 2,6 km/h (1 Bft) 0 min 3,6 km/h (1 Bft)
12.08.2009 14:10 24,6 C 23,1 C 1,7 UV-I 0,6 C 59 % 70 % 17 % 1019,5 hPa 0,0 l/m 2,6 km/h (1 Bft) 0 min 3,6 km/h (1 Bft)
12.08.2009 14:12 24,6 C 23,0 C 1,8 UV-I 0,6 C 59 % 70 % 17 % 1019,5 hPa 0,0 l/m 2,6 km/h (1 Bft) 0 min 0,0 km/h (0 Bft)
12.08.2009 14:14 24,6 C 23,0 C 1,8 UV-I 0,5 C 59 % 70 % 14 % 1019,5 hPa 0,0 l/m 2,4 km/h (1 Bft) 0 min 2,6 km/h (1 Bft)
12.08.2009 14:16 24,6 C 23,0 C 1,8 UV-I 0,5 C 59 % 70 % 14 % 1019,2 hPa 0,0 l/m 2,9 km/h (1 Bft) 0 min 3,4 km/h (1 Bft)
12.08.2009 14:18 24,6 C 23,0 C 2,1 UV-I 0,3 C 59 % 70 % 9 % 1019,2 hPa 0,0 l/m 2,9 km/h (1 Bft) 0 min 7,5 km/h (2 Bft)
12.08.2009 14:20 24,6 C 23,0 C 2,1 UV-I 0,3 C 59 % 70 % 9 % 1019,2 hPa 0,0 l/m 3,6 km/h (1 Bft) 0 min 7,5 km/h (2 Bft)
12.08.2009 14:22 24,6 C 23,1 C 2,0 UV-I 0,0 C 59 % 69 % 0 % 1019,2 hPa 0,0 l/m 4,1 km/h (1 Bft) 0 min 15,2 km/h (3 Bft)
12.08.2009 14:24 24,6 C 22,9 C 2,0 UV-I 0,0 C 59 % 70 % 0 % 1019,2 hPa 0,0 l/m 4,6 km/h (1 Bft) 0 min 15,2 km/h (3 Bft)
12.08.2009 14:26 24,6 C 22,8 C 2,0 UV-I 0,1 C 59 % 69 % 3 % 1019,2 hPa 0,0 l/m 5,1 km/h (1 Bft) 0 min 8,2 km/h (2 Bft)
12.08.2009 14:28 24,6 C 22,9 C 1,6 UV-I 0,0 C 59 % 70 % 0 % 1019,2 hPa 0,0 l/m 5,3 km/h (1 Bft) 0 min 8,2 km/h (2 Bft)
12.08.2009 14:32 24,6 C 22,8 C 1,4 UV-I 0,0 C 59 % 70 % 0 % 1019,2 hPa 0,0 l/m 4,8 km/h (1 Bft) 0 min 10,6 km/h (2 Bft)
12.08.2009 14:34 24,6 C 22,7 C 1,4 UV-I 0,0 C 59 % 70 % 0 % 1019,2 hPa 0,0 l/m 3,8 km/h (1 Bft) 0 min 10,6 km/h (2 Bft)
12.08.2009 14:36 24,6 C 22,8 C 1,4 UV-I 0,0 C 59 % 70 % 0 % 1019,2 hPa 0,0 l/m 3,6 km/h (1 Bft) 0 min 3,1 km/h (1 Bft)
12.08.2009 14:38 24,6 C 22,6 C 1,1 UV-I 0,0 C 59 % 71 % 0 % 1019,2 hPa 0,0 l/m 3,1 km/h (1 Bft) 0 min 4,6 km/h (1 Bft)
12.08.2009 14:40 24,6 C 22,6 C 1,1 UV-I 0,0 C 59 % 71 % 0 % 1019,2 hPa 0,0 l/m 3,1 km/h (1 Bft) 0 min 4,6 km/h (1 Bft)
12.08.2009 14:42 24,6 C 22,7 C 0,8 UV-I 0,0 C 59 % 72 % 0 % 1019,2 hPa 0,0 l/m 2,6 km/h (1 Bft) 0 min 4,3 km/h (1 Bft)
12.08.2009 14:44 24,6 C 22,5 C 0,8 UV-I 0,0 C 59 % 72 % 0 % 1019,2 hPa 0,0 l/m 2,2 km/h (1 Bft) 0 min 2,9 km/h (1 Bft)
12.08.2009 14:46 24,6 C 22,5 C 0,8 UV-I 0,0 C 59 % 73 % 0 % 1019,2 hPa 0,0 l/m 1,7 km/h (1 Bft) 0 min 2,9 km/h (1 Bft)
12.08.2009 14:48 24,6 C 22,5 C 0,7 UV-I 0,0 C 59 % 73 % 0 % 1019,2 hPa 0,0 l/m 1,7 km/h (1 Bft) 0 min 5,5 km/h (1 Bft)
12.08.2009 14:50 24,6 C 22,5 C 0,7 UV-I 0,0 C 59 % 73 % 0 % 1019,2 hPa 0,0 l/m 1,7 km/h (1 Bft) 0 min 6,5 km/h (2 Bft)
12.08.2009 14:52 24,5 C 22,3 C 0,5 UV-I 0,0 C 59 % 73 % 0 % 1019,2 hPa 0,0 l/m 1,2 km/h (1 Bft) 0 min 0,0 km/h (0 Bft)
12.08.2009 14:54 24,5 C 22,3 C 0,5 UV-I 0,0 C 60 % 74 % 0 % 1019,2 hPa 0,0 l/m 1,2 km/h (1 Bft) 0 min 5,3 km/h (1 Bft)
12.08.2009 14:56 24,5 C 22,2 C 0,5 UV-I 0,0 C 60 % 74 % 0 % 1018,8 hPa 0,0 l/m 1,2 km/h (1 Bft) 0 min 0,0 km/h (0 Bft)
12.08.2009 14:58 24,5 C 22,3 C 0,6 UV-I 0,0 C 60 % 74 % 0 % 1018,8 hPa 0,0 l/m 1,4 km/h (1 Bft) 0 min 0,0 km/h (0 Bft)
12.08.2009 15:00 24,5 C 22,3 C 0,6 UV-I 0,0 C 60 % 74 % 0 % 1018,8 hPa 0,0 l/m 1,2 km/h (1 Bft) 0 min 2,9 km/h (1 Bft)
12.08.2009 15:02 24,5 C 22,1 C 0,7 UV-I 0,0 C 60 % 75 % 0 % 1018,8 hPa 0,0 l/m 1,0 km/h (0 Bft) 0 min 2,9 km/h (1 Bft)
12.08.2009 15:04 24,5 C 22,1 C 0,7 UV-I 0,0 C 59 % 75 % 0 % 1018,8 hPa 0,0 l/m 1,0 km/h (0 Bft) 0 min 0,0 km/h (0 Bft)
12.08.2009 15:06 24,5 C 22,0 C 0,7 UV-I 0,0 C 59 % 75 % 0 % 1018,8 hPa 0,0 l/m 0,7 km/h (0 Bft) 0 min 4,8 km/h (1 Bft)
12.08.2009 15:08 24,4 C 22,0 C 0,5 UV-I 0,0 C 59 % 76 % 0 % 1018,8 hPa 0,0 l/m 0,7 km/h (0 Bft) 0 min 4,8 km/h (1 Bft)
12.08.2009 15:10 24,4 C 22,0 C 0,5 UV-I 0,0 C 59 % 76 % 0 % 1018,8 hPa 0,0 l/m 0,7 km/h (0 Bft) 0 min 2,6 km/h (1 Bft)
12.08.2009 15:12 24,4 C 21,9 C 0,6 UV-I 0,0 C 59 % 76 % 0 % 1018,8 hPa 0,0 l/m 1,0 km/h (0 Bft) 0 min 7,9 km/h (2 Bft)
12.08.2009 15:14 24,4 C 21,9 C 0,6 UV-I 0,0 C 60 % 76 % 0 % 1018,8 hPa 0,0 l/m 1,2 km/h (1 Bft) 0 min 7,9 km/h (2 Bft)
12.08.2009 15:16 24,4 C 21,7 C 0,6 UV-I 0,0 C 60 % 76 % 0 % 1018,9 hPa 0,0 l/m 1,4 km/h (1 Bft) 0 min 5,1 km/h (1 Bft)
12.08.2009 15:18 24,4 C 21,6 C 0,7 UV-I 0,0 C 60 % 77 % 0 % 1018,9 hPa 0,0 l/m 1,9 km/h (1 Bft) 0 min 4,8 km/h (1 Bft)
12.08.2009 15:20 24,4 C 21,6 C 0,7 UV-I 0,0 C 60 % 77 % 0 % 1018,9 hPa 0,2 l/m 2,2 km/h (1 Bft) 0 min 3,6 km/h (1 Bft)
12.08.2009 15:22 24,4 C 21,5 C 1,4 UV-I 0,0 C 60 % 78 % 0 % 1018,9 hPa 0,1 l/m 2,2 km/h (1 Bft) 0 min 0,0 km/h (0 Bft)
12.08.2009 15:24 24,4 C 21,5 C 1,4 UV-I 0,0 C 60 % 78 % 0 % 1018,9 hPa 0,0 l/m 1,4 km/h (1 Bft) 0 min 0,0 km/h (0 Bft)
12.08.2009 15:26 24,4 C 21,5 C 1,4 UV-I 0,0 C 60 % 79 % 0 % 1018,9 hPa 0,1 l/m 1,4 km/h (1 Bft) 0 min 0,0 km/h (0 Bft)
12.08.2009 15:28 24,4 C 21,5 C 0,9 UV-I 0,0 C 60 % 79 % 0 % 1018,9 hPa 0,1 l/m 1,2 km/h (1 Bft) 0 min 5,8 km/h (2 Bft)
12.08.2009 15:30 24,4 C 21,3 C 0,9 UV-I 0,0 C 60 % 79 % 0 % 1018,9 hPa 0,0 l/m 0,7 km/h (0 Bft) 0 min 5,8 km/h (2 Bft)
12.08.2009 15:32 24,4 C 21,2 C 1,1 UV-I 0,0 C 60 % 80 % 0 % 1018,9 hPa 0,1 l/m 0,7 km/h (0 Bft) 0 min 5,3 km/h (1 Bft)
12.08.2009 15:36 24,4 C 21,2 C 1,1 UV-I 0,0 C 60 % 81 % 0 % 1018,7 hPa 0,2 l/m 1,0 km/h (0 Bft) 0 min 4,1 km/h (1 Bft)
12.08.2009 15:38 24,4 C 21,1 C 0,9 UV-I 0,0 C 60 % 81 % 0 % 1018,7 hPa 0,0 l/m 1,2 km/h (1 Bft) 0 min 3,4 km/h (1 Bft)
12.08.2009 15:40 24,4 C 21,0 C 0,9 UV-I 0,0 C 60 % 81 % 0 % 1018,7 hPa 0,0 l/m 1,4 km/h (1 Bft) 0 min 4,3 km/h (1 Bft)
12.08.2009 15:42 24,4 C 21,0 C 0,4 UV-I 0,0 C 60 % 82 % 0 % 1018,7 hPa 0,1 l/m 1,2 km/h (1 Bft) 0 min 4,3 km/h (1 Bft)
12.08.2009 15:44 24,4 C 20,9 C 0,4 UV-I 0,0 C 60 % 82 % 0 % 1018,7 hPa 0,1 l/m 1,2 km/h (1 Bft) 0 min 0,0 km/h (0 Bft)
12.08.2009 15:46 24,4 C 20,8 C 0,4 UV-I 0,0 C 60 % 82 % 0 % 1018,7 hPa 0,0 l/m 1,4 km/h (1 Bft) 0 min 5,8 km/h (2 Bft)
12.08.2009 15:50 24,2 C 20,7 C 0,4 UV-I 0,0 C 60 % 82 % 0 % 1018,7 hPa 0,1 l/m 1,7 km/h (1 Bft) 0 min 6,3 km/h (2 Bft)
12.08.2009 15:52 24,2 C 20,7 C 0,3 UV-I 0,0 C 60 % 83 % 0 % 1018,7 hPa 0,0 l/m 1,7 km/h (1 Bft) 0 min 4,6 km/h (1 Bft)
12.08.2009 15:54 24,3 C 20,7 C 0,3 UV-I 0,0 C 60 % 83 % 0 % 1018,7 hPa 0,1 l/m 1,9 km/h (1 Bft) 0 min 6,5 km/h (2 Bft)
12.08.2009 15:56 24,3 C 20,5 C 0,3 UV-I 0,0 C 60 % 83 % 0 % 1018,9 hPa 0,1 l/m 2,2 km/h (1 Bft) 0 min 6,5 km/h (2 Bft)
12.08.2009 15:58 24,3 C 20,5 C 0,3 UV-I 0,0 C 60 % 84 % 0 % 1018,9 hPa 0,0 l/m 2,6 km/h (1 Bft) 0 min 7,9 km/h (2 Bft)
12.08.2009 16:00 24,3 C 20,4 C 0,3 UV-I 0,0 C 61 % 84 % 0 % 1018,9 hPa 0,1 l/m 2,6 km/h (1 Bft) 0 min 7,9 km/h (2 Bft)
12.08.2009 16:02 24,3 C 20,4 C 0,1 UV-I 0,0 C 61 % 84 % 0 % 1018,9 hPa 0,2 l/m 3,4 km/h (1 Bft) 0 min 5,1 km/h (1 Bft)
12.08.2009 16:04 24,2 C 20,2 C 0,1 UV-I 0,0 C 61 % 85 % 0 % 1018,9 hPa 0,0 l/m 3,6 km/h (1 Bft) 0 min 3,8 km/h (1 Bft)
12.08.2009 16:06 24,2 C 20,2 C 0,1 UV-I 0,0 C 61 % 85 % 0 % 1018,9 hPa 0,1 l/m 4,1 km/h (1 Bft) 0 min 5,8 km/h (2 Bft)
12.08.2009 16:08 24,2 C 20,1 C 0,2 UV-I 0,0 C 61 % 85 % 0 % 1018,9 hPa 0,3 l/m 3,8 km/h (1 Bft) 0 min 5,8 km/h (2 Bft)
12.08.2009 16:10 24,2 C 20,1 C 0,2 UV-I 0,0 C 61 % 85 % 0 % 1018,9 hPa 0,0 l/m 3,6 km/h (1 Bft) 0 min 4,1 km/h (1 Bft)
12.08.2009 16:14 24,2 C 19,9 C 0,2 UV-I 0,0 C 61 % 86 % 0 % 1018,9 hPa 0,3 l/m 3,6 km/h (1 Bft) 0 min 8,9 km/h (2 Bft)
12.08.2009 16:16 24,2 C 19,8 C 0,2 UV-I 0,0 C 61 % 86 % 0 % 1018,9 hPa 0,0 l/m 2,9 km/h (1 Bft) 0 min 8,9 km/h (2 Bft)
12.08.2009 16:18 24,2 C 19,8 C 0,0 UV-I 0,0 C 61 % 86 % 0 % 1018,9 hPa 0,0 l/m 2,4 km/h (1 Bft) 0 min 2,6 km/h (1 Bft)
12.08.2009 16:20 24,2 C 19,6 C 0,0 UV-I 0,0 C 61 % 86 % 0 % 1018,9 hPa 0,0 l/m 2,2 km/h (1 Bft) 0 min 2,6 km/h (1 Bft)
12.08.2009 16:22 24,2 C 19,7 C 0,1 UV-I 0,0 C 61 % 86 % 0 % 1018,9 hPa 0,0 l/m 2,6 km/h (1 Bft) 0 min 4,6 km/h (1 Bft)
12.08.2009 16:24 24,2 C 19,5 C 0,1 UV-I 0,0 C 61 % 86 % 0 % 1018,9 hPa 0,1 l/m 1,7 km/h (1 Bft) 0 min 4,6 km/h (1 Bft)
12.08.2009 16:26 24,2 C 19,5 C 0,1 UV-I 0,0 C 61 % 86 % 0 % 1018,9 hPa 0,0 l/m 1,9 km/h (1 Bft) 0 min 6,3 km/h (2 Bft)
12.08.2009 16:30 24,1 C 19,5 C 0,1 UV-I 0,0 C 61 % 86 % 0 % 1018,9 hPa 0,0 l/m 1,7 km/h (1 Bft) 0 min 2,4 km/h (1 Bft)
12.08.2009 16:32 24,1 C 19,5 C 0,2 UV-I 0,0 C 61 % 87 % 0 % 1018,9 hPa 0,0 l/m 1,9 km/h (1 Bft) 0 min 4,6 km/h (1 Bft)
12.08.2009 16:34 24,1 C 19,3 C 0,2 UV-I 0,0 C 61 % 87 % 0 % 1018,9 hPa 0,0 l/m 2,2 km/h (1 Bft) 0 min 4,6 km/h (1 Bft)
12.08.2009 16:36 24,1 C 19,3 C 0,2 UV-I 0,0 C 61 % 87 % 0 % 1018,8 hPa 0,0 l/m 1,9 km/h (1 Bft) 0 min 2,4 km/h (1 Bft)
12.08.2009 16:38 24,1 C 19,2 C 0,2 UV-I 0,0 C 62 % 87 % 0 % 1018,8 hPa 0,0 l/m 1,4 km/h (1 Bft) 0 min 2,9 km/h (1 Bft)
12.08.2009 16:42 24,0 C 19,2 C 0,2 UV-I 0,0 C 62 % 88 % 0 % 1018,8 hPa 0,0 l/m 1,7 km/h (1 Bft) 0 min 4,6 km/h (1 Bft)
12.08.2009 16:44 24,0 C 19,3 C 0,2 UV-I 0,0 C 62 % 88 % 0 % 1018,8 hPa 0,0 l/m 1,9 km/h (1 Bft) 0 min 4,6 km/h (1 Bft)
12.08.2009 16:46 24,0 C 19,2 C 0,2 UV-I 0,0 C 62 % 88 % 0 % 1018,8 hPa 0,0 l/m 2,4 km/h (1 Bft) 0 min 5,3 km/h (1 Bft)
12.08.2009 16:48 24,0 C 19,2 C 0,1 UV-I 0,0 C 62 % 88 % 0 % 1018,8 hPa 0,0 l/m 2,4 km/h (1 Bft) 0 min 5,3 km/h (1 Bft)
12.08.2009 16:50 24,0 C 19,1 C 0,1 UV-I 0,0 C 62 % 88 % 0 % 1018,8 hPa 0,0 l/m 2,2 km/h (1 Bft) 0 min 3,8 km/h (1 Bft)
12.08.2009 16:52 24,0 C 19,1 C 0,1 UV-I 0,0 C 62 % 88 % 0 % 1018,8 hPa 0,1 l/m 1,9 km/h (1 Bft) 0 min 0,0 km/h (0 Bft)
12.08.2009 16:54 24,0 C 19,1 C 0,1 UV-I 0,0 C 62 % 88 % 0 % 1018,8 hPa 0,0 l/m 1,2 km/h (1 Bft) 0 min 0,0 km/h (0 Bft)
12.08.2009 16:56 24,0 C 19,0 C 0,1 UV-I 0,0 C 62 % 88 % 0 % 1018,6 hPa 0,0 l/m 1,0 km/h (0 Bft) 0 min 4,3 km/h (1 Bft)
12.08.2009 16:58 24,0 C 19,0 C 0,1 UV-I 0,0 C 62 % 89 % 0 % 1018,6 hPa 0,1 l/m 0,5 km/h (0 Bft) 0 min 2,9 km/h (1 Bft)
12.08.2009 17:00 24,0 C 19,1 C 0,1 UV-I 0,0 C 62 % 89 % 0 % 1018,6 hPa 0,1 l/m 0,7 km/h (0 Bft) 0 min 2,9 km/h (1 Bft)
12.08.2009 17:02 24,0 C 19,0 C 0,2 UV-I 0,0 C 62 % 89 % 0 % 1018,6 hPa 0,0 l/m 1,9 km/h (1 Bft) 0 min 5,8 km/h (2 Bft)
12.08.2009 17:04 24,0 C 19,0 C 0,2 UV-I 0,0 C 62 % 89 % 0 % 1018,6 hPa 0,0 l/m 2,6 km/h (1 Bft) 0 min 5,8 km/h (2 Bft)
12.08.2009 17:06 24,0 C 18,9 C 0,2 UV-I 0,0 C 62 % 89 % 0 % 1018,6 hPa 0,1 l/m 3,4 km/h (1 Bft) 0 min 5,5 km/h (1 Bft)
12.08.2009 17:08 24,0 C 18,9 C 0,0 UV-I 0,0 C 62 % 90 % 0 % 1018,6 hPa 0,0 l/m 3,6 km/h (1 Bft) 0 min 6,3 km/h (2 Bft)
12.08.2009 17:10 24,0 C 18,8 C 0,0 UV-I 0,0 C 62 % 90 % 0 % 1018,6 hPa 0,1 l/m 3,6 km/h (1 Bft) 0 min 6,3 km/h (2 Bft)
12.08.2009 17:12 23,9 C 18,8 C 0,0 UV-I 0,0 C 62 % 90 % 0 % 1018,6 hPa 0,1 l/m 3,1 km/h (1 Bft) 0 min 6,5 km/h (2 Bft)
12.08.2009 17:14 24,0 C 18,8 C 0,0 UV-I 0,0 C 62 % 90 % 0 % 1018,6 hPa 0,0 l/m 3,6 km/h (1 Bft) 0 min 7,2 km/h (2 Bft)
12.08.2009 17:16 23,9 C 18,8 C 0,0 UV-I 0,0 C 62 % 90 % 0 % 1018,5 hPa 0,1 l/m 3,4 km/h (1 Bft) 0 min 7,2 km/h (2 Bft)
12.08.2009 17:20 23,9 C 18,8 C 0,0 UV-I 0,0 C 62 % 90 % 0 % 1018,5 hPa 0,0 l/m 2,4 km/h (1 Bft) 0 min 2,6 km/h (1 Bft)
12.08.2009 17:22 23,9 C 18,8 C 0,1 UV-I 0,0 C 63 % 90 % 0 % 1018,5 hPa 0,1 l/m 1,9 km/h (1 Bft) 0 min 0,0 km/h (0 Bft)
12.08.2009 17:24 23,9 C 18,7 C 0,1 UV-I 0,0 C 63 % 90 % 0 % 1018,5 hPa 0,0 l/m 1,4 km/h (1 Bft) 0 min 2,4 km/h (1 Bft)
12.08.2009 17:26 23,9 C 18,8 C 0,1 UV-I 0,0 C 63 % 90 % 0 % 1018,5 hPa 0,0 l/m 0,5 km/h (0 Bft) 0 min 2,4 km/h (1 Bft)
12.08.2009 17:28 23,9 C 18,7 C 0,1 UV-I 0,0 C 63 % 90 % 0 % 1018,5 hPa 0,1 l/m 0,5 km/h (0 Bft) 0 min 0,0 km/h (0 Bft)
12.08.2009 17:30 23,9 C 18,7 C 0,1 UV-I 0,0 C 63 % 90 % 0 % 1018,5 hPa 0,0 l/m 1,0 km/h (0 Bft) 0 min 0,0 km/h (0 Bft)
12.08.2009 17:32 23,9 C 18,6 C 0,0 UV-I 0,0 C 63 % 91 % 0 % 1018,5 hPa 0,0 l/m 1,4 km/h (1 Bft) 0 min 5,8 km/h (2 Bft)
12.08.2009 17:34 23,9 C 18,7 C 0,0 UV-I 0,0 C 63 % 90 % 0 % 1018,5 hPa 0,1 l/m 1,2 km/h (1 Bft) 0 min 0,0 km/h (0 Bft)
12.08.2009 17:36 23,9 C 18,7 C 0,0 UV-I 0,0 C 63 % 90 % 0 % 1018,5 hPa 0,0 l/m 1,7 km/h (1 Bft) 0 min 3,6 km/h (1 Bft)
12.08.2009 17:38 23,8 C 18,7 C 0,0 UV-I 0,0 C 63 % 90 % 0 % 1018,5 hPa 0,1 l/m 1,9 km/h (1 Bft) 0 min 3,1 km/h (1 Bft)
12.08.2009 17:40 23,8 C 18,7 C 0,0 UV-I 0,0 C 63 % 90 % 0 % 1018,5 hPa 0,1 l/m 1,9 km/h (1 Bft) 0 min 3,1 km/h (1 Bft)
12.08.2009 17:42 23,8 C 18,6 C 0,0 UV-I 0,0 C 63 % 91 % 0 % 1018,5 hPa 0,0 l/m 1,9 km/h (1 Bft) 0 min 3,6 km/h (1 Bft)
12.08.2009 17:44 23,8 C 18,5 C 0,0 UV-I 0,0 C 63 % 90 % 0 % 1018,5 hPa 0,2 l/m 1,7 km/h (1 Bft) 0 min 5,1 km/h (1 Bft)
12.08.2009 17:48 23,8 C 18,5 C 0,0 UV-I 0,0 C 63 % 90 % 0 % 1018,5 hPa 0,1 l/m 2,2 km/h (1 Bft) 0 min 5,1 km/h (1 Bft)
12.08.2009 17:50 23,8 C 18,5 C 0,0 UV-I 0,0 C 63 % 91 % 0 % 1018,5 hPa 0,2 l/m 1,4 km/h (1 Bft) 0 min 0,0 km/h (0 Bft)
12.08.2009 17:52 23,8 C 18,5 C 0,0 UV-I 0,0 C 63 % 91 % 0 % 1018,5 hPa 0,2 l/m 2,2 km/h (1 Bft) 0 min 4,6 km/h (1 Bft)
12.08.2009 17:54 23,8 C 18,5 C 0,0 UV-I 0,0 C 63 % 91 % 0 % 1018,5 hPa 0,0 l/m 2,2 km/h (1 Bft) 0 min 4,6 km/h (1 Bft)
12.08.2009 17:56 23,8 C 18,4 C 0,0 UV-I 0,0 C 63 % 91 % 0 % 1018,6 hPa 0,2 l/m 1,7 km/h (1 Bft) 0 min 0,0 km/h (0 Bft)
12.08.2009 18:00 23,8 C 18,4 C 0,0 UV-I 0,0 C 63 % 91 % 0 % 1018,6 hPa 0,2 l/m 1,2 km/h (1 Bft) 0 min 0,0 km/h (0 Bft)
12.08.2009 18:02 23,8 C 18,5 C 0,0 UV-I 0,0 C 63 % 91 % 0 % 1018,6 hPa 0,2 l/m 1,0 km/h (0 Bft) 0 min 0,0 km/h (0 Bft)
12.08.2009 18:04 23,8 C 18,5 C 0,0 UV-I 0,0 C 63 % 91 % 0 % 1018,6 hPa 0,2 l/m 0,5 km/h (0 Bft) 0 min 0,0 km/h (0 Bft)
12.08.2009 18:06 23,8 C 18,4 C 0,0 UV-I 0,0 C 63 % 91 % 0 % 1018,6 hPa 0,0 l/m 0,5 km/h (0 Bft) 0 min 2,4 km/h (1 Bft)
12.08.2009 18:08 23,8 C 18,3 C 0,0 UV-I 0,0 C 63 % 91 % 0 % 1018,6 hPa 0,2 l/m 0,5 km/h (0 Bft) 0 min 2,9 km/h (1 Bft)
12.08.2009 18:10 23,8 C 18,4 C 0,0 UV-I 0,0 C 63 % 91 % 0 % 1018,6 hPa 0,2 l/m 0,7 km/h (0 Bft) 0 min 2,9 km/h (1 Bft)
12.08.2009 18:14 23,7 C 18,4 C 0,0 UV-I 0,0 C 63 % 91 % 0 % 1018,6 hPa 0,1 l/m 0,7 km/h (0 Bft) 0 min 3,1 km/h (1 Bft)
12.08.2009 18:16 23,8 C 18,3 C 0,0 UV-I 0,0 C 63 % 91 % 0 % 1018,1 hPa 0,2 l/m 1,2 km/h (1 Bft) 0 min 3,1 km/h (1 Bft)
12.08.2009 18:18 23,7 C 18,3 C 0,0 UV-I 0,0 C 63 % 92 % 0 % 1018,1 hPa 0,0 l/m 1,4 km/h (1 Bft) 0 min 9,1 km/h (2 Bft)
12.08.2009 18:20 23,7 C 18,3 C 0,0 UV-I 0,0 C 63 % 92 % 0 % 1018,1 hPa 0,2 l/m 1,4 km/h (1 Bft) 0 min 9,1 km/h (2 Bft)
12.08.2009 18:22 23,7 C 18,3 C 0,0 UV-I 0,0 C 63 % 92 % 0 % 1018,1 hPa 0,2 l/m 1,4 km/h (1 Bft) 0 min 2,9 km/h (1 Bft)
12.08.2009 18:24 23,7 C 18,2 C 0,0 UV-I 0,0 C 63 % 92 % 0 % 1018,1 hPa 0,0 l/m 1,9 km/h (1 Bft) 0 min 2,9 km/h (1 Bft)
12.08.2009 18:26 23,7 C 18,2 C 0,0 UV-I 0,0 C 64 % 92 % 0 % 1018,1 hPa 0,2 l/m 1,7 km/h (1 Bft) 0 min 5,5 km/h (1 Bft)
12.08.2009 18:30 23,7 C 18,2 C 0,0 UV-I 0,0 C 64 % 92 % 0 % 1018,1 hPa 0,2 l/m 1,2 km/h (1 Bft) 0 min 5,5 km/h (1 Bft)
12.08.2009 18:32 23,7 C 18,3 C 0,1 UV-I 0,0 C 64 % 92 % 0 % 1018,1 hPa 0,2 l/m 1,4 km/h (1 Bft) 0 min 0,0 km/h (0 Bft)
12.08.2009 18:34 23,7 C 18,2 C 0,1 UV-I 0,0 C 64 % 92 % 0 % 1018,1 hPa 0,2 l/m 1,7 km/h (1 Bft) 0 min 0,0 km/h (0 Bft)
12.08.2009 18:36 23,7 C 18,1 C 0,1 UV-I 0,0 C 64 % 92 % 0 % 1017,9 hPa 0,0 l/m 1,4 km/h (1 Bft) 0 min 2,4 km/h (1 Bft)
12.08.2009 18:39 23,7 C 18,1 C 0,0 UV-I 0,0 C 64 % 92 % 0 % 1017,9 hPa 0,0 l/m 1,9 km/h (1 Bft) 0 min 0,0 km/h (0 Bft)
12.08.2009 18:44 23,7 C 18,1 C 0,0 UV-I 0,0 C 64 % 92 % 0 % 1017,9 hPa 0,3 l/m 2,2 km/h (1 Bft) 0 min 3,6 km/h (1 Bft)
12.08.2009 18:46 23,7 C 18,1 C 0,0 UV-I 0,0 C 64 % 92 % 0 % 1017,9 hPa 0,0 l/m 2,4 km/h (1 Bft) 0 min 3,6 km/h (1 Bft)
12.08.2009 18:48 23,7 C 18,0 C 0,0 UV-I 0,0 C 64 % 92 % 0 % 1017,9 hPa 0,1 l/m 2,2 km/h (1 Bft) 0 min 7,0 km/h (2 Bft)
12.08.2009 18:50 23,7 C 18,0 C 0,0 UV-I 0,0 C 64 % 92 % 0 % 1017,9 hPa 0,2 l/m 2,2 km/h (1 Bft) 0 min 7,0 km/h (2 Bft)
12.08.2009 18:52 23,7 C 18,1 C 0,0 UV-I 0,0 C 64 % 92 % 0 % 1017,9 hPa 0,0 l/m 2,2 km/h (1 Bft) 0 min 2,9 km/h (1 Bft)
12.08.2009 18:54 23,7 C 18,0 C 0,0 UV-I 0,0 C 64 % 92 % 0 % 1017,9 hPa 0,1 l/m 1,4 km/h (1 Bft) 0 min 2,9 km/h (1 Bft)
12.08.2009 18:56 23,7 C 18,0 C 0,0 UV-I 0,0 C 64 % 92 % 0 % 1017,6 hPa 0,2 l/m 1,2 km/h (1 Bft) 0 min 5,5 km/h (1 Bft)
12.08.2009 18:58 23,7 C 18,1 C 0,0 UV-I 0,0 C 64 % 92 % 0 % 1017,6 hPa 0,0 l/m 1,4 km/h (1 Bft) 0 min 5,5 km/h (1 Bft)
12.08.2009 19:00 23,7 C 18,1 C 0,0 UV-I 0,0 C 64 % 92 % 0 % 1017,6 hPa 0,1 l/m 1,0 km/h (0 Bft) 0 min 0,0 km/h (0 Bft)
12.08.2009 19:02 23,6 C 18,0 C 0,0 UV-I 0,0 C 64 % 92 % 0 % 1017,6 hPa 0,2 l/m 1,0 km/h (0 Bft) 0 min 4,6 km/h (1 Bft)
12.08.2009 19:04 23,7 C 18,0 C 0,0 UV-I 0,0 C 64 % 92 % 0 % 1017,6 hPa 0,0 l/m 1,2 km/h (1 Bft) 0 min 6,5 km/h (2 Bft)
12.08.2009 19:06 23,7 C 18,0 C 0,0 UV-I 0,0 C 64 % 92 % 0 % 1017,6 hPa 0,2 l/m 1,2 km/h (1 Bft) 0 min 6,5 km/h (2 Bft)
12.08.2009 19:08 23,7 C 18,1 C 0,0 UV-I 0,0 C 64 % 92 % 0 % 1017,6 hPa 0,1 l/m 1,0 km/h (0 Bft) 0 min 0,0 km/h (0 Bft)
12.08.2009 19:10 23,6 C 18,1 C 0,0 UV-I 0,0 C 64 % 92 % 0 % 1017,6 hPa 0,0 l/m 0,7 km/h (0 Bft) 0 min 0,0 km/h (0 Bft)
12.08.2009 19:12 23,6 C 18,1 C 0,0 UV-I 0,0 C 64 % 93 % 0 % 1017,6 hPa 0,2 l/m 1,0 km/h (0 Bft) 0 min 5,5 km/h (1 Bft)
12.08.2009 19:14 23,6 C 18,1 C 0,0 UV-I 0,0 C 64 % 93 % 0 % 1017,6 hPa 0,2 l/m 1,0 km/h (0 Bft) 0 min 5,5 km/h (1 Bft)
12.08.2009 19:16 23,6 C 18,0 C 0,0 UV-I 0,0 C 64 % 93 % 0 % 1017,6 hPa 0,0 l/m 1,0 km/h (0 Bft) 0 min 7,2 km/h (2 Bft)
12.08.2009 19:18 23,6 C 18,0 C 0,0 UV-I 0,0 C 64 % 93 % 0 % 1017,6 hPa 0,2 l/m 1,2 km/h (1 Bft) 0 min 7,2 km/h (2 Bft)
12.08.2009 19:20 23,6 C 18,0 C 0,0 UV-I 0,0 C 64 % 93 % 0 % 1017,6 hPa 0,1 l/m 1,2 km/h (1 Bft) 0 min 3,4 km/h (1 Bft)
12.08.2009 19:22 23,6 C 18,0 C 0,0 UV-I 0,0 C 64 % 93 % 0 % 1017,6 hPa 0,0 l/m 1,4 km/h (1 Bft) 0 min 4,8 km/h (1 Bft)
12.08.2009 19:24 23,6 C 18,1 C 0,0 UV-I 0,0 C 64 % 93 % 0 % 1017,6 hPa 0,2 l/m 1,2 km/h (1 Bft) 0 min 5,8 km/h (2 Bft)
12.08.2009 19:26 23,6 C 18,0 C 0,0 UV-I 0,0 C 64 % 93 % 0 % 1017,6 hPa 0,2 l/m 1,2 km/h (1 Bft) 0 min 5,8 km/h (2 Bft)
12.08.2009 19:28 23,6 C 18,0 C 0,0 UV-I 0,0 C 64 % 93 % 0 % 1017,6 hPa 0,0 l/m 1,0 km/h (0 Bft) 0 min 2,9 km/h (1 Bft)
12.08.2009 19:30 23,6 C 18,0 C 0,0 UV-I 0,0 C 64 % 93 % 0 % 1017,6 hPa 0,1 l/m 1,0 km/h (0 Bft) 0 min 3,6 km/h (1 Bft)
12.08.2009 19:32 23,6 C 18,0 C 0,0 UV-I 0,0 C 64 % 93 % 0 % 1017,6 hPa 0,2 l/m 1,2 km/h (1 Bft) 0 min 3,6 km/h (1 Bft)
12.08.2009 19:34 23,6 C 17,9 C 0,0 UV-I 0,0 C 64 % 93 % 0 % 1017,6 hPa 0,0 l/m 1,0 km/h (0 Bft) 0 min 0,0 km/h (0 Bft)
12.08.2009 19:36 23,6 C 18,0 C 0,0 UV-I 0,0 C 64 % 93 % 0 % 1017,8 hPa 0,2 l/m 0,7 km/h (0 Bft) 0 min 0,0 km/h (0 Bft)
12.08.2009 19:38 23,6 C 18,0 C 0,0 UV-I 0,0 C 64 % 93 % 0 % 1017,8 hPa 0,0 l/m 0,7 km/h (0 Bft) 0 min 0,0 km/h (0 Bft)
12.08.2009 19:40 23,6 C 18,1 C 0,0 UV-I 0,0 C 64 % 93 % 0 % 1017,8 hPa 0,1 l/m 0,5 km/h (0 Bft) 0 min 0,0 km/h (0 Bft)
12.08.2009 19:42 23,6 C 18,0 C 0,0 UV-I 0,0 C 64 % 93 % 0 % 1017,8 hPa 0,1 l/m 1,0 km/h (0 Bft) 0 min 0,0 km/h (0 Bft)
12.08.2009 19:44 23,6 C 18,1 C 0,0 UV-I 0,0 C 64 % 93 % 0 % 1017,8 hPa 0,0 l/m 1,0 km/h (0 Bft) 0 min 0,0 km/h (0 Bft)
12.08.2009 19:46 23,6 C 18,1 C 0,0 UV-I 0,0 C 64 % 93 % 0 % 1017,8 hPa 0,1 l/m 0,7 km/h (0 Bft) 0 min 0,0 km/h (0 Bft)
12.08.2009 19:48 23,6 C 18,1 C 0,0 UV-I 0,0 C 64 % 93 % 0 % 1017,8 hPa 0,2 l/m 1,2 km/h (1 Bft) 0 min 6,3 km/h (2 Bft)
12.08.2009 19:50 23,6 C 18,0 C 0,0 UV-I 0,0 C 65 % 93 % 0 % 1017,8 hPa 0,0 l/m 1,2 km/h (1 Bft) 0 min 6,3 km/h (2 Bft)
12.08.2009 19:52 23,6 C 18,0 C 0,0 UV-I 0,0 C 65 % 93 % 0 % 1017,8 hPa 0,1 l/m 1,0 km/h (0 Bft) 0 min 0,0 km/h (0 Bft)
12.08.2009 19:54 23,6 C 18,1 C 0,0 UV-I 0,0 C 64 % 93 % 0 % 1017,8 hPa 0,1 l/m 1,2 km/h (1 Bft) 0 min 9,6 km/h (2 Bft)
12.08.2009 19:56 23,6 C 18,1 C 0,0 UV-I 0,0 C 65 % 93 % 0 % 1017,5 hPa 0,0 l/m 1,2 km/h (1 Bft) 0 min 9,6 km/h (2 Bft)
12.08.2009 19:58 23,6 C 18,0 C 0,0 UV-I 0,0 C 65 % 93 % 0 % 1017,5 hPa 0,1 l/m 1,9 km/h (1 Bft) 0 min 6,7 km/h (2 Bft)
12.08.2009 20:00 23,6 C 18,0 C 0,0 UV-I 0,0 C 65 % 93 % 0 % 1017,5 hPa 0,1 l/m 1,7 km/h (1 Bft) 0 min 6,7 km/h (2 Bft)
12.08.2009 20:02 23,6 C 18,0 C 0,0 UV-I 0,0 C 65 % 93 % 0 % 1017,5 hPa 0,0 l/m 1,9 km/h (1 Bft) 0 min 6,5 km/h (2 Bft)
12.08.2009 20:04 23,6 C 18,0 C 0,0 UV-I 0,0 C 65 % 93 % 0 % 1017,5 hPa 0,2 l/m 2,2 km/h (1 Bft) 0 min 6,5 km/h (2 Bft)
12.08.2009 20:06 23,6 C 18,0 C 0,0 UV-I 0,0 C 65 % 93 % 0 % 1017,5 hPa 0,1 l/m 1,9 km/h (1 Bft) 0 min 0,0 km/h (0 Bft)
12.08.2009 20:08 23,6 C 18,0 C 0,0 UV-I 0,0 C 65 % 93 % 0 % 1017,5 hPa 0,0 l/m 1,9 km/h (1 Bft) 0 min 0,0 km/h (0 Bft)
12.08.2009 20:10 23,6 C 18,1 C 0,0 UV-I 0,0 C 65 % 93 % 0 % 1017,5 hPa 0,1 l/m 1,7 km/h (1 Bft) 0 min 0,0 km/h (0 Bft)
12.08.2009 20:12 23,6 C 18,0 C 0,0 UV-I 0,0 C 65 % 93 % 0 % 1017,5 hPa 0,1 l/m 2,2 km/h (1 Bft) 0 min 3,1 km/h (1 Bft)
12.08.2009 20:14 23,6 C 18,0 C 0,0 UV-I 0,0 C 65 % 93 % 0 % 1017,5 hPa 0,0 l/m 1,4 km/h (1 Bft) 0 min 3,1 km/h (1 Bft)
12.08.2009 20:16 23,6 C 18,0 C 0,0 UV-I 0,0 C 65 % 93 % 0 % 1017,4 hPa 0,1 l/m 1,9 km/h (1 Bft) 0 min 3,1 km/h (1 Bft)
12.08.2009 20:18 23,6 C 18,0 C 0,0 UV-I 0,0 C 65 % 93 % 0 % 1017,4 hPa 0,1 l/m 1,9 km/h (1 Bft) 0 min 2,4 km/h (1 Bft)
12.08.2009 20:20 23,6 C 18,1 C 0,0 UV-I 0,0 C 65 % 93 % 0 % 1017,4 hPa 0,0 l/m 1,4 km/h (1 Bft) 0 min 2,4 km/h (1 Bft)
12.08.2009 20:22 23,6 C 18,0 C 0,0 UV-I 0,0 C 65 % 93 % 0 % 1017,4 hPa 0,1 l/m 1,2 km/h (1 Bft) 0 min 2,4 km/h (1 Bft)
12.08.2009 20:24 23,6 C 18,1 C 0,0 UV-I 0,0 C 65 % 93 % 0 % 1017,4 hPa 0,0 l/m 1,2 km/h (1 Bft) 0 min 6,7 km/h (2 Bft)
12.08.2009 20:26 23,6 C 18,0 C 0,0 UV-I 0,0 C 65 % 93 % 0 % 1017,4 hPa 0,0 l/m 0,7 km/h (0 Bft) 0 min 6,7 km/h (2 Bft)
12.08.2009 20:28 23,6 C 18,0 C 0,0 UV-I 0,0 C 65 % 93 % 0 % 1017,4 hPa 0,1 l/m 0,7 km/h (0 Bft) 0 min 0,0 km/h (0 Bft)
12.08.2009 20:30 23,6 C 18,0 C 0,0 UV-I 0,0 C 65 % 93 % 0 % 1017,4 hPa 0,1 l/m 0,5 km/h (0 Bft) 0 min 0,0 km/h (0 Bft)
12.08.2009 20:32 23,6 C 18,0 C 0,0 UV-I 0,0 C 65 % 93 % 0 % 1017,4 hPa 0,0 l/m 0,7 km/h (0 Bft) 0 min 3,4 km/h (1 Bft)
12.08.2009 20:34 23,6 C 18,1 C 0,0 UV-I 0,0 C 65 % 93 % 0 % 1017,4 hPa 0,1 l/m 1,2 km/h (1 Bft) 0 min 10,1 km/h (2 Bft)
12.08.2009 20:36 23,5 C 18,0 C 0,0 UV-I 0,0 C 65 % 93 % 0 % 1017,9 hPa 0,0 l/m 1,9 km/h (1 Bft) 0 min 10,1 km/h (2 Bft)
12.08.2009 20:38 23,6 C 18,0 C 0,0 UV-I 0,0 C 65 % 92 % 0 % 1017,9 hPa 0,0 l/m 2,4 km/h (1 Bft) 0 min 5,8 km/h (2 Bft)
12.08.2009 20:40 23,6 C 17,9 C 0,0 UV-I 0,0 C 65 % 92 % 0 % 1017,9 hPa 0,1 l/m 2,6 km/h (1 Bft) 0 min 5,8 km/h (2 Bft)
12.08.2009 20:42 23,5 C 17,9 C 0,0 UV-I 0,0 C 65 % 92 % 0 % 1017,9 hPa 0,0 l/m 2,4 km/h (1 Bft) 0 min 0,0 km/h (0 Bft)
12.08.2009 20:44 23,5 C 17,9 C 0,0 UV-I 0,0 C 65 % 92 % 0 % 1017,9 hPa 0,0 l/m 2,4 km/h (1 Bft) 0 min 2,4 km/h (1 Bft)
12.08.2009 20:46 23,5 C 17,9 C 0,0 UV-I 0,0 C 65 % 92 % 0 % 1017,9 hPa 0,1 l/m 1,4 km/h (1 Bft) 0 min 2,4 km/h (1 Bft)
12.08.2009 20:50 23,5 C 17,7 C 0,0 UV-I 0,0 C 65 % 92 % 0 % 1017,9 hPa 0,0 l/m 0,7 km/h (0 Bft) 0 min 4,8 km/h (1 Bft)
12.08.2009 20:52 23,5 C 17,7 C 0,0 UV-I 0,0 C 65 % 92 % 0 % 1017,9 hPa 0,1 l/m 0,7 km/h (0 Bft) 0 min 2,9 km/h (1 Bft)
12.08.2009 20:54 23,5 C 17,7 C 0,0 UV-I 0,0 C 65 % 92 % 0 % 1017,9 hPa 0,0 l/m 0,5 km/h (0 Bft) 0 min 0,0 km/h (0 Bft)
12.08.2009 20:56 23,5 C 17,6 C 0,0 UV-I 0,0 C 65 % 92 % 0 % 1017,9 hPa 0,0 l/m 0,2 km/h (0 Bft) 0 min 0,0 km/h (0 Bft)
12.08.2009 20:58 23,5 C 17,6 C 0,0 UV-I 0,0 C 65 % 92 % 0 % 1017,9 hPa 0,1 l/m 0,2 km/h (0 Bft) 0 min 0,0 km/h (0 Bft)
12.08.2009 21:00 23,5 C 17,6 C 0,0 UV-I 0,0 C 65 % 92 % 0 % 1017,9 hPa 0,0 l/m 0,0 km/h (0 Bft) 0 min 0,0 km/h (0 Bft)
12.08.2009 21:02 23,5 C 17,6 C 0,0 UV-I 0,0 C 65 % 92 % 0 % 1017,9 hPa 0,0 l/m 0,0 km/h (0 Bft) 0 min 0,0 km/h (0 Bft)
12.08.2009 21:04 23,5 C 17,7 C 0,0 UV-I 0,0 C 65 % 92 % 0 % 1017,9 hPa 0,0 l/m 0,0 km/h (0 Bft) 0 min 0,0 km/h (0 Bft)
12.08.2009 21:06 23,5 C 17,7 C 0,0 UV-I 0,0 C 65 % 92 % 0 % 1017,9 hPa 0,0 l/m 0,0 km/h (0 Bft) 0 min 0,0 km/h (0 Bft)
12.08.2009 21:08 23,5 C 17,6 C 0,0 UV-I 0,0 C 65 % 92 % 0 % 1017,9 hPa 0,0 l/m 0,0 km/h (0 Bft) 0 min 0,0 km/h (0 Bft)
12.08.2009 21:10 23,5 C 17,6 C 0,0 UV-I 0,0 C 65 % 92 % 0 % 1017,9 hPa 0,1 l/m 0,0 km/h (0 Bft) 0 min 0,0 km/h (0 Bft)
12.08.2009 21:12 23,5 C 17,6 C 0,0 UV-I 0,0 C 65 % 92 % 0 % 1017,9 hPa 0,0 l/m 0,0 km/h (0 Bft) 0 min 0,0 km/h (0 Bft)
12.08.2009 21:14 23,5 C 17,6 C 0,0 UV-I 0,0 C 65 % 92 % 0 % 1017,9 hPa 0,0 l/m 0,0 km/h (0 Bft) 0 min 0,0 km/h (0 Bft)
12.08.2009 21:16 23,4 C 17,6 C 0,0 UV-I 0,0 C 65 % 92 % 0 % 1017,7 hPa 0,0 l/m 0,0 km/h (0 Bft) 0 min 0,0 km/h (0 Bft)
12.08.2009 21:18 23,5 C 17,6 C 0,0 UV-I 0,0 C 65 % 92 % 0 % 1017,7 hPa 0,0 l/m 0,0 km/h (0 Bft) 0 min 0,0 km/h (0 Bft)
12.08.2009 21:20 23,4 C 17,5 C 0,0 UV-I 0,0 C 65 % 92 % 0 % 1017,7 hPa 0,0 l/m 0,0 km/h (0 Bft) 0 min 0,0 km/h (0 Bft)
12.08.2009 21:22 23,4 C 17,5 C 0,0 UV-I 0,0 C 65 % 92 % 0 % 1017,7 hPa 0,0 l/m 0,0 km/h (0 Bft) 0 min 0,0 km/h (0 Bft)
12.08.2009 21:24 23,5 C 17,5 C 0,0 UV-I 0,0 C 65 % 92 % 0 % 1017,7 hPa 0,0 l/m 0,0 km/h (0 Bft) 0 min 0,0 km/h (0 Bft)
12.08.2009 21:26 23,4 C 17,5 C 0,0 UV-I 0,0 C 65 % 92 % 0 % 1017,7 hPa 0,0 l/m 0,0 km/h (0 Bft) 0 min 0,0 km/h (0 Bft)
12.08.2009 21:28 23,4 C 17,5 C 0,0 UV-I 0,0 C 65 % 92 % 0 % 1017,7 hPa 0,0 l/m 0,0 km/h (0 Bft) 0 min 0,0 km/h (0 Bft)
12.08.2009 21:30 23,4 C 17,4 C 0,0 UV-I 0,0 C 65 % 92 % 0 % 1017,7 hPa 0,0 l/m 0,0 km/h (0 Bft) 0 min 0,0 km/h (0 Bft)
12.08.2009 21:32 23,4 C 17,4 C 0,0 UV-I 0,0 C 65 % 92 % 0 % 1017,7 hPa 0,0 l/m 0,0 km/h (0 Bft) 0 min 0,0 km/h (0 Bft)
12.08.2009 21:34 23,4 C 17,4 C 0,0 UV-I 0,0 C 65 % 92 % 0 % 1017,7 hPa 0,1 l/m 0,0 km/h (0 Bft) 0 min 0,0 km/h (0 Bft)
12.08.2009 21:36 23,4 C 17,4 C 0,0 UV-I 0,0 C 65 % 92 % 0 % 1017,7 hPa 0,0 l/m 0,0 km/h (0 Bft) 0 min 0,0 km/h (0 Bft)
12.08.2009 21:38 23,4 C 17,4 C 0,0 UV-I 0,0 C 65 % 92 % 0 % 1017,7 hPa 0,0 l/m 0,0 km/h (0 Bft) 0 min 0,0 km/h (0 Bft)
12.08.2009 21:40 23,4 C 17,5 C 0,0 UV-I 0,0 C 65 % 92 % 0 % 1017,7 hPa 0,0 l/m 0,0 km/h (0 Bft) 0 min 0,0 km/h (0 Bft)
12.08.2009 21:42 23,4 C 17,5 C 0,0 UV-I 0,0 C 65 % 92 % 0 % 1017,7 hPa 0,0 l/m 0,0 km/h (0 Bft) 0 min 0,0 km/h (0 Bft)
12.08.2009 21:44 23,4 C 17,5 C 0,0 UV-I 0,0 C 65 % 92 % 0 % 1017,7 hPa 0,0 l/m 0,0 km/h (0 Bft) 0 min 0,0 km/h (0 Bft)
12.08.2009 21:46 23,4 C 17,5 C 0,0 UV-I 0,0 C 65 % 92 % 0 % 1017,7 hPa 0,0 l/m 0,0 km/h (0 Bft) 0 min 0,0 km/h (0 Bft)
12.08.2009 21:48 23,4 C 17,5 C 0,0 UV-I 0,0 C 65 % 92 % 0 % 1017,7 hPa 0,0 l/m 0,0 km/h (0 Bft) 0 min 0,0 km/h (0 Bft)
12.08.2009 21:50 23,4 C 17,5 C 0,0 UV-I 0,0 C 65 % 92 % 0 % 1017,7 hPa 0,0 l/m 0,0 km/h (0 Bft) 0 min 0,0 km/h (0 Bft)
12.08.2009 21:52 23,4 C 17,4 C 0,0 UV-I 0,0 C 65 % 92 % 0 % 1017,7 hPa 0,0 l/m 0,0 km/h (0 Bft) 0 min 0,0 km/h (0 Bft)
12.08.2009 21:54 23,4 C 17,4 C 0,0 UV-I 0,0 C 65 % 92 % 0 % 1017,7 hPa 0,0 l/m 0,0 km/h (0 Bft) 0 min 0,0 km/h (0 Bft)
12.08.2009 21:56 23,4 C 17,3 C 0,0 UV-I 0,0 C 65 % 92 % 0 % 1017,8 hPa 0,0 l/m 0,0 km/h (0 Bft) 0 min 0,0 km/h (0 Bft)
12.08.2009 21:58 23,4 C 17,3 C 0,0 UV-I 0,0 C 65 % 92 % 0 % 1017,8 hPa 0,0 l/m 0,0 km/h (0 Bft) 0 min 0,0 km/h (0 Bft)
12.08.2009 22:00 23,4 C 17,4 C 0,0 UV-I 0,0 C 65 % 92 % 0 % 1017,8 hPa 0,0 l/m 0,0 km/h (0 Bft) 0 min 0,0 km/h (0 Bft)
12.08.2009 22:02 23,4 C 17,3 C 0,0 UV-I 0,0 C 65 % 92 % 0 % 1017,8 hPa 0,0 l/m 0,0 km/h (0 Bft) 0 min 0,0 km/h (0 Bft)
12.08.2009 22:04 23,4 C 17,3 C 0,0 UV-I 0,0 C 65 % 92 % 0 % 1017,8 hPa 0,0 l/m 0,0 km/h (0 Bft) 0 min 0,0 km/h (0 Bft)
12.08.2009 22:06 23,4 C 17,3 C 0,0 UV-I 0,0 C 65 % 92 % 0 % 1017,8 hPa 0,0 l/m 0,0 km/h (0 Bft) 0 min 0,0 km/h (0 Bft)
12.08.2009 22:08 23,4 C 17,3 C 0,0 UV-I 0,0 C 65 % 92 % 0 % 1017,8 hPa 0,0 l/m 0,0 km/h (0 Bft) 0 min 0,0 km/h (0 Bft)
12.08.2009 22:10 23,4 C 17,3 C 0,0 UV-I 0,0 C 65 % 92 % 0 % 1017,8 hPa 0,0 l/m 0,0 km/h (0 Bft) 0 min 0,0 km/h (0 Bft)
12.08.2009 22:12 23,4 C 17,3 C 0,0 UV-I 0,0 C 65 % 92 % 0 % 1017,8 hPa 0,0 l/m 0,0 km/h (0 Bft) 0 min 0,0 km/h (0 Bft)
12.08.2009 22:14 23,4 C 17,3 C 0,0 UV-I 0,0 C 65 % 92 % 0 % 1017,8 hPa 0,0 l/m 0,0 km/h (0 Bft) 0 min 0,0 km/h (0 Bft)
12.08.2009 22:16 23,4 C 17,3 C 0,0 UV-I 0,0 C 65 % 92 % 0 % 1017,9 hPa 0,0 l/m 0,0 km/h (0 Bft) 0 min 0,0 km/h (0 Bft)
12.08.2009 22:20 23,4 C 17,3 C 0,0 UV-I 0,0 C 65 % 92 % 0 % 1017,9 hPa 0,0 l/m 0,0 km/h (0 Bft) 0 min 0,0 km/h (0 Bft)
12.08.2009 22:22 23,4 C 17,3 C 0,0 UV-I 0,0 C 65 % 92 % 0 % 1017,9 hPa 0,0 l/m 0,0 km/h (0 Bft) 0 min 0,0 km/h (0 Bft)
12.08.2009 22:24 23,4 C 17,3 C 0,0 UV-I 0,0 C 65 % 92 % 0 % 1017,9 hPa 0,0 l/m 0,0 km/h (0 Bft) 0 min 0,0 km/h (0 Bft)
12.08.2009 22:26 23,4 C 17,3 C 0,0 UV-I 0,0 C 65 % 92 % 0 % 1017,9 hPa 0,0 l/m 0,0 km/h (0 Bft) 0 min 0,0 km/h (0 Bft)
12.08.2009 22:28 23,4 C 17,2 C 0,0 UV-I 0,0 C 65 % 92 % 0 % 1017,9 hPa 0,0 l/m 0,0 km/h (0 Bft) 0 min 0,0 km/h (0 Bft)
12.08.2009 22:30 23,4 C 17,2 C 0,0 UV-I 0,0 C 65 % 92 % 0 % 1017,9 hPa 0,0 l/m 0,0 km/h (0 Bft) 0 min 0,0 km/h (0 Bft)
12.08.2009 22:32 23,4 C 17,2 C 0,0 UV-I 0,0 C 65 % 92 % 0 % 1017,9 hPa 0,0 l/m 0,0 km/h (0 Bft) 0 min 0,0 km/h (0 Bft)
12.08.2009 22:34 23,4 C 17,2 C 0,0 UV-I 0,0 C 65 % 92 % 0 % 1017,9 hPa 0,0 l/m 0,0 km/h (0 Bft) 0 min 0,0 km/h (0 Bft)
12.08.2009 22:36 23,4 C 17,2 C 0,0 UV-I 0,0 C 65 % 92 % 0 % 1017,6 hPa 0,0 l/m 0,0 km/h (0 Bft) 0 min 0,0 km/h (0 Bft)
12.08.2009 22:38 23,2 C 17,2 C 0,0 UV-I 0,0 C 65 % 92 % 0 % 1017,6 hPa 0,0 l/m 0,0 km/h (0 Bft) 0 min 0,0 km/h (0 Bft)
12.08.2009 22:40 23,2 C 17,2 C 0,0 UV-I 0,0 C 65 % 92 % 0 % 1017,6 hPa 0,0 l/m 0,0 km/h (0 Bft) 0 min 0,0 km/h (0 Bft)
12.08.2009 22:42 23,2 C 17,2 C 0,0 UV-I 0,0 C 65 % 92 % 0 % 1017,6 hPa 0,0 l/m 0,0 km/h (0 Bft) 0 min 0,0 km/h (0 Bft)
12.08.2009 22:44 23,2 C 17,2 C 0,0 UV-I 0,0 C 65 % 92 % 0 % 1017,6 hPa 0,0 l/m 0,0 km/h (0 Bft) 0 min 0,0 km/h (0 Bft)
12.08.2009 22:46 23,2 C 17,2 C 0,0 UV-I 0,0 C 65 % 92 % 0 % 1017,6 hPa 0,0 l/m 0,0 km/h (0 Bft) 0 min 0,0 km/h (0 Bft)
12.08.2009 22:48 23,2 C 17,2 C 0,0 UV-I 0,0 C 65 % 92 % 0 % 1017,6 hPa 0,0 l/m 0,0 km/h (0 Bft) 0 min 0,0 km/h (0 Bft)
12.08.2009 22:50 23,2 C 17,3 C 0,0 UV-I 0,0 C 65 % 92 % 0 % 1017,6 hPa 0,0 l/m 0,0 km/h (0 Bft) 0 min 0,0 km/h (0 Bft)
12.08.2009 22:52 23,2 C 17,3 C 0,0 UV-I 0,0 C 65 % 92 % 0 % 1017,6 hPa 0,0 l/m 0,0 km/h (0 Bft) 0 min 0,0 km/h (0 Bft)
12.08.2009 22:54 23,2 C 17,2 C 0,0 UV-I 0,0 C 65 % 92 % 0 % 1017,6 hPa 0,0 l/m 0,0 km/h (0 Bft) 0 min 0,0 km/h (0 Bft)
12.08.2009 22:56 23,2 C 17,3 C 0,0 UV-I 0,0 C 65 % 92 % 0 % 1017,7 hPa 0,0 l/m 0,0 km/h (0 Bft) 0 min 0,0 km/h (0 Bft)
12.08.2009 22:58 23,2 C 17,2 C 0,0 UV-I 0,0 C 65 % 92 % 0 % 1017,7 hPa 0,0 l/m 0,0 km/h (0 Bft) 0 min 0,0 km/h (0 Bft)
12.08.2009 23:00 23,2 C 17,2 C 0,0 UV-I 0,0 C 65 % 92 % 0 % 1017,7 hPa 0,0 l/m 0,0 km/h (0 Bft) 0 min 0,0 km/h (0 Bft)
12.08.2009 23:04 23,2 C 17,3 C 0,0 UV-I 0,0 C 65 % 92 % 0 % 1017,7 hPa 0,0 l/m 0,0 km/h (0 Bft) 0 min 0,0 km/h (0 Bft)
12.08.2009 23:06 23,2 C 17,3 C 0,0 UV-I 0,0 C 65 % 92 % 0 % 1017,7 hPa 0,0 l/m 0,0 km/h (0 Bft) 0 min 0,0 km/h (0 Bft)
12.08.2009 23:08 23,2 C 17,3 C 0,0 UV-I 0,0 C 65 % 92 % 0 % 1017,7 hPa 0,0 l/m 0,0 km/h (0 Bft) 0 min 0,0 km/h (0 Bft)
12.08.2009 23:10 23,2 C 17,3 C 0,0 UV-I 0,0 C 65 % 92 % 0 % 1017,7 hPa 0,0 l/m 0,0 km/h (0 Bft) 0 min 0,0 km/h (0 Bft)
12.08.2009 23:12 23,2 C 17,3 C 0,0 UV-I 0,0 C 65 % 92 % 0 % 1017,7 hPa 0,0 l/m 0,0 km/h (0 Bft) 0 min 0,0 km/h (0 Bft)
12.08.2009 23:14 23,2 C 17,2 C 0,0 UV-I 0,0 C 65 % 92 % 0 % 1017,7 hPa 0,0 l/m 0,0 km/h (0 Bft) 0 min 0,0 km/h (0 Bft)
12.08.2009 23:16 23,2 C 17,3 C 0,0 UV-I 0,0 C 65 % 92 % 0 % 1017,4 hPa 0,0 l/m 0,0 km/h (0 Bft) 0 min 0,0 km/h (0 Bft)
12.08.2009 23:18 23,2 C 17,3 C 0,0 UV-I 0,0 C 65 % 92 % 0 % 1017,4 hPa 0,0 l/m 0,0 km/h (0 Bft) 0 min 0,0 km/h (0 Bft)
12.08.2009 23:20 23,2 C 17,2 C 0,0 UV-I 0,0 C 65 % 92 % 0 % 1017,4 hPa 0,0 l/m 0,0 km/h (0 Bft) 0 min 0,0 km/h (0 Bft)
12.08.2009 23:22 23,2 C 17,3 C 0,0 UV-I 0,0 C 65 % 92 % 0 % 1017,4 hPa 0,0 l/m 0,0 km/h (0 Bft) 0 min 0,0 km/h (0 Bft)
12.08.2009 23:24 23,2 C 17,3 C 0,0 UV-I 0,0 C 65 % 92 % 0 % 1017,4 hPa 0,0 l/m 0,0 km/h (0 Bft) 0 min 0,0 km/h (0 Bft)
12.08.2009 23:26 23,2 C 17,3 C 0,0 UV-I 0,0 C 65 % 92 % 0 % 1017,4 hPa 0,0 l/m 0,0 km/h (0 Bft) 0 min 0,0 km/h (0 Bft)
12.08.2009 23:28 23,2 C 17,2 C 0,0 UV-I 0,0 C 65 % 92 % 0 % 1017,4 hPa 0,0 l/m 0,0 km/h (0 Bft) 0 min 0,0 km/h (0 Bft)
12.08.2009 23:30 23,2 C 17,3 C 0,0 UV-I 0,0 C 65 % 92 % 0 % 1017,4 hPa 0,0 l/m 0,0 km/h (0 Bft) 0 min 0,0 km/h (0 Bft)
12.08.2009 23:32 23,2 C 17,3 C 0,0 UV-I 0,0 C 65 % 92 % 0 % 1017,4 hPa 0,0 l/m 0,0 km/h (0 Bft) 0 min 0,0 km/h (0 Bft)
12.08.2009 23:36 23,3 C 17,3 C 0,0 UV-I 0,0 C 65 % 92 % 0 % 1017,5 hPa 0,0 l/m 0,0 km/h (0 Bft) 0 min 0,0 km/h (0 Bft)
12.08.2009 23:38 23,2 C 17,3 C 0,0 UV-I 0,0 C 65 % 92 % 0 % 1017,5 hPa 0,0 l/m 0,0 km/h (0 Bft) 0 min 0,0 km/h (0 Bft)
12.08.2009 23:40 23,3 C 17,3 C 0,0 UV-I 0,0 C 65 % 92 % 0 % 1017,5 hPa 0,0 l/m 0,0 km/h (0 Bft) 0 min 0,0 km/h (0 Bft)
12.08.2009 23:42 23,3 C 17,3 C 0,0 UV-I 0,0 C 65 % 92 % 0 % 1017,5 hPa 0,0 l/m 0,0 km/h (0 Bft) 0 min 0,0 km/h (0 Bft)
12.08.2009 23:44 23,3 C 17,2 C 0,0 UV-I 0,0 C 65 % 92 % 0 % 1017,5 hPa 0,0 l/m 0,0 km/h (0 Bft) 0 min 0,0 km/h (0 Bft)
12.08.2009 23:46 23,2 C 17,3 C 0,0 UV-I 0,0 C 65 % 92 % 0 % 1017,5 hPa 0,0 l/m 0,0 km/h (0 Bft) 0 min 0,0 km/h (0 Bft)
12.08.2009 23:50 23,3 C 17,2 C 0,0 UV-I 0,0 C 65 % 92 % 0 % 1017,5 hPa 0,0 l/m 0,0 km/h (0 Bft) 0 min 0,0 km/h (0 Bft)
12.08.2009 23:52 23,3 C 17,3 C 0,0 UV-I 0,0 C 65 % 93 % 0 % 1017,5 hPa 0,0 l/m 0,0 km/h (0 Bft) 0 min 0,0 km/h (0 Bft)
12.08.2009 23:54 23,2 C 17,3 C 0,0 UV-I 0,0 C 65 % 92 % 0 % 1017,5 hPa 0,0 l/m 0,0 km/h (0 Bft) 0 min 0,0 km/h (0 Bft)
12.08.2009 23:56 23,2 C 17,3 C 0,0 UV-I 0,0 C 65 % 92 % 0 % 1017,5 hPa 0,0 l/m 0,0 km/h (0 Bft) 0 min 0,0 km/h (0 Bft)
12.08.2009 23:58 23,3 C 17,2 C 0,0 UV-I 0,0 C 65 % 92 % 0 % 1017,5 hPa 0,0 l/m 0,0 km/h (0 Bft) 0 min 0,0 km/h (0 Bft)
_ Min-Zeit 04:44 04:10 00:02 00:02 13:28 14:22 00:02 20:16 - 00:02 - 00:02
Minimum _ 23,2 C 14,8 C 0,0 UV-I 0,0 C 59 % 69 % 0 % 1017,4 hPa - 0,0 km/h (0 Bft) - 0,0 km/h (0 Bft)
_ Max-Zeit 13:46 13:50 12:58 13:44 19:50 19:12 13:44 00:36 16:08 13:30 00:02 13:34
Maximum _ 24,6 C 23,1 C 5,0 UV-I 2,8 C 65 % 93 % 80 % 1021,7 hPa 0,3 l/m 5,8 km/h
N (2 Bft)
0 min 23,1 km/h
NW (4 Bft)
Durchschnitt _ 23,7 C 18,1 C 0,6 UV-I 0,3 C 62 % 85 % 9 % 1019,7 hPa #12,2 l/m 1,7 km/h (1 Bft) #0 min. 3,9 km/h (1 Bft)
© 2012 W. Hausmann